Time,TemperatureF,DewpointF,PressureIn,WindDirection,WindDirectionDegrees,WindSpeedMPH,WindSpeedGustMPH,Humidity,HourlyPrecipIn,Conditions,Clouds,dailyrainin,SoftwareType,DateUTC
2013-11-18 00:00:00,44.6,40.1,29.21,West,274,2.7,5.4,84,0.00,,CLR,0.16,VWS V14.01,2013-11-18 06:00:00,
2013-11-18 00:01:00,44.6,40.1,29.21,West,275,4.9,5.8,84,0.00,,CLR,0.16,VWS V14.01,2013-11-18 06:01:00,
2013-11-18 00:02:00,44.6,40.1,29.21,West,264,5.4,5.4,84,0.00,,CLR,0.16,VWS V14.01,2013-11-18 06:02:00,
2013-11-18 00:04:00,44.4,39.9,29.21,West,272,4.0,4.9,84,0.00,,CLR,0.00,VWS V14.01,2013-11-18 06:04:00,
2013-11-18 00:06:00,44.2,39.7,29.21,West,260,3.6,5.8,84,0.00,,CLR,0.00,VWS V14.01,2013-11-18 06:06:00,
2013-11-18 00:07:00,44.2,39.7,29.21,West,265,3.6,5.4,84,0.00,,CLR,0.00,VWS V14.01,2013-11-18 06:07:00,
2013-11-18 00:11:00,44.1,38.9,29.23,West,278,5.4,6.3,82,0.00,,CLR,0.00,VWS V14.01,2013-11-18 06:11:00,
2013-11-18 00:12:00,44.1,38.9,29.23,WNW,285,4.0,5.8,82,0.00,,CLR,0.00,VWS V14.01,2013-11-18 06:12:00,
2013-11-18 00:13:00,44.1,38.9,29.23,West,272,4.0,5.4,82,0.00,,CLR,0.00,VWS V14.01,2013-11-18 06:13:00,
2013-11-18 00:16:00,44.2,39.1,29.23,WSW,256,5.4,6.3,82,0.00,,CLR,0.00,VWS V14.01,2013-11-18 06:16:00,
2013-11-18 00:17:00,44.2,39.1,29.23,West,278,3.6,5.4,82,0.00,,CLR,0.00,VWS V14.01,2013-11-18 06:17:00,
2013-11-18 00:18:00,44.2,39.1,29.23,West,279,4.9,5.4,82,0.00,,CLR,0.00,VWS V14.01,2013-11-18 06:18:00,
2013-11-18 00:21:00,44.1,38.9,29.23,West,272,3.6,5.4,82,0.00,,CLR,0.00,VWS V14.01,2013-11-18 06:21:00,
2013-11-18 00:23:00,44.1,38.9,29.23,WNW,290,4.5,4.9,82,0.00,,CLR,0.00,VWS V14.01,2013-11-18 06:23:00,
2013-11-18 00:24:00,44.1,38.9,29.23,WNW,291,5.4,5.4,82,0.00,,CLR,0.00,VWS V14.01,2013-11-18 06:24:00,
2013-11-18 00:26:00,44.1,38.9,29.23,West,270,4.9,5.4,82,0.00,,CLR,0.00,VWS V14.01,2013-11-18 06:26:00,
2013-11-18 00:27:00,43.9,38.8,29.23,West,266,3.1,4.9,82,0.00,,CLR,0.00,VWS V14.01,2013-11-18 06:27:00,
2013-11-18 00:29:00,43.7,38.6,29.23,West,269,3.6,4.9,82,0.00,,CLR,0.00,VWS V14.01,2013-11-18 06:29:00,
2013-11-18 00:30:00,43.7,38.6,29.23,WNW,288,4.9,5.4,82,0.00,,CLR,0.00,VWS V14.01,2013-11-18 06:30:00,
2013-11-18 00:31:00,43.7,38.6,29.23,West,272,3.6,4.0,82,0.00,,CLR,0.00,VWS V14.01,2013-11-18 06:31:00,
2013-11-18 00:32:00,43.7,38.6,29.23,West,276,3.6,4.0,82,0.00,,CLR,0.00,VWS V14.01,2013-11-18 06:32:00,
2013-11-18 00:33:00,43.7,38.6,29.23,WSW,258,4.0,4.0,82,0.00,,CLR,0.00,VWS V14.01,2013-11-18 06:33:00,
2013-11-18 00:35:00,43.7,38.6,29.23,West,269,3.6,5.4,82,0.00,,CLR,0.00,VWS V14.01,2013-11-18 06:35:00,
2013-11-18 00:36:00,43.7,38.6,29.23,West,274,4.0,4.0,82,0.00,,CLR,0.00,VWS V14.01,2013-11-18 06:36:00,
2013-11-18 00:37:00,43.7,38.6,29.23,WNW,284,3.6,4.0,82,0.00,,CLR,0.00,VWS V14.01,2013-11-18 06:37:00,
2013-11-18 00:39:00,43.5,37.8,29.23,West,272,4.0,5.8,80,0.00,,CLR,0.00,VWS V14.01,2013-11-18 06:39:00,
2013-11-18 00:40:00,43.3,37.6,29.23,West,272,4.0,4.0,80,0.00,,CLR,0.00,VWS V14.01,2013-11-18 06:40:00,
2013-11-18 00:41:00,43.3,37.6,29.23,West,268,3.6,3.6,80,0.00,,CLR,0.00,VWS V14.01,2013-11-18 06:41:00,
2013-11-18 00:42:00,43.3,37.6,29.23,West,273,4.0,4.0,80,0.00,,CLR,0.00,VWS V14.01,2013-11-18 06:42:00,
2013-11-18 00:43:00,43.3,37.6,29.23,West,273,3.6,4.0,80,0.00,,CLR,0.00,VWS V14.01,2013-11-18 06:43:00,
2013-11-18 00:45:00,43.2,37.4,29.23,West,260,3.6,4.0,80,0.00,,CLR,0.00,VWS V14.01,2013-11-18 06:45:00,
2013-11-18 00:47:00,43.0,37.2,29.23,West,265,4.0,4.9,80,0.00,,CLR,0.00,VWS V14.01,2013-11-18 06:47:00,
2013-11-18 00:48:00,43.0,37.2,29.23,West,271,3.6,4.9,80,0.00,,CLR,0.00,VWS V14.01,2013-11-18 06:48:00,
2013-11-18 00:50:00,43.0,37.2,29.23,West,276,4.0,4.0,80,0.00,,CLR,0.00,VWS V14.01,2013-11-18 06:50:00,
2013-11-18 00:51:00,43.0,37.2,29.23,West,276,4.0,4.0,80,0.00,,CLR,0.00,VWS V14.01,2013-11-18 06:51:00,
2013-11-18 00:53:00,42.8,37.1,29.23,WSW,252,3.1,4.0,80,0.00,,CLR,0.00,VWS V14.01,2013-11-18 06:53:00,
2013-11-18 00:54:00,42.8,37.1,29.23,West,262,3.6,4.9,80,0.00,,CLR,0.00,VWS V14.01,2013-11-18 06:54:00,
2013-11-18 00:55:00,42.8,37.1,29.23,WSW,255,3.6,3.6,80,0.00,,CLR,0.00,VWS V14.01,2013-11-18 06:55:00,
2013-11-18 00:56:00,42.8,37.1,29.23,West,265,3.1,3.6,80,0.00,,CLR,0.00,VWS V14.01,2013-11-18 06:56:00,
2013-11-18 00:59:00,42.4,37.3,29.23,WSW,254,4.9,4.9,82,0.00,,CLR,0.00,VWS V14.01,2013-11-18 06:59:00,
2013-11-18 01:00:00,42.4,37.3,29.23,West,263,4.0,5.4,82,0.00,,CLR,0.00,VWS V14.01,2013-11-18 07:00:00,
2013-11-18 01:01:00,42.6,37.5,29.23,West,264,3.6,3.6,82,0.00,,CLR,0.00,VWS V14.01,2013-11-18 07:01:00,
2013-11-18 01:02:00,42.6,37.5,29.23,West,264,3.6,3.6,82,0.00,,CLR,0.00,VWS V14.01,2013-11-18 07:02:00,
2013-11-18 01:04:00,42.8,37.7,29.23,WNW,285,4.0,4.9,82,0.00,,CLR,0.00,VWS V14.01,2013-11-18 07:04:00,
2013-11-18 01:05:00,42.8,37.7,29.23,WNW,285,2.7,4.0,82,0.00,,CLR,0.00,VWS V14.01,2013-11-18 07:05:00,
2013-11-18 01:06:00,42.8,37.7,29.23,West,281,4.9,5.4,82,0.00,,CLR,0.00,VWS V14.01,2013-11-18 07:06:00,
2013-11-18 01:09:00,42.8,37.7,29.23,West,267,4.0,4.0,82,0.00,,CLR,0.00,VWS V14.01,2013-11-18 07:09:00,
2013-11-18 01:10:00,42.8,37.7,29.23,West,278,4.0,4.9,82,0.00,,CLR,0.00,VWS V14.01,2013-11-18 07:10:00,
2013-11-18 01:11:00,43.0,37.9,29.23,WSW,251,4.9,5.4,82,0.00,,CLR,0.00,VWS V14.01,2013-11-18 07:11:00,
2013-11-18 01:14:00,43.2,38.0,29.23,West,273,3.6,3.6,82,0.00,,CLR,0.00,VWS V14.01,2013-11-18 07:14:00,
2013-11-18 01:15:00,43.2,38.0,29.23,WNW,284,5.4,5.4,82,0.00,,CLR,0.00,VWS V14.01,2013-11-18 07:15:00,
2013-11-18 01:16:00,43.2,38.0,29.23,West,281,4.9,5.4,82,0.00,,CLR,0.00,VWS V14.01,2013-11-18 07:16:00,
2013-11-18 01:17:00,43.2,38.0,29.23,West,269,3.6,5.4,82,0.00,,CLR,0.00,VWS V14.01,2013-11-18 07:17:00,
2013-11-18 01:19:00,43.3,38.2,29.23,WNW,294,4.0,4.9,82,0.00,,CLR,0.00,VWS V14.01,2013-11-18 07:19:00,
2013-11-18 01:20:00,43.3,38.2,29.23,West,272,4.0,5.4,82,0.00,,CLR,0.00,VWS V14.01,2013-11-18 07:20:00,
2013-11-18 01:21:00,43.3,38.2,29.23,West,280,5.4,5.4,82,0.00,,CLR,0.00,VWS V14.01,2013-11-18 07:21:00,
2013-11-18 01:23:00,43.3,38.2,29.23,WNW,287,5.4,6.3,82,0.00,,CLR,0.00,VWS V14.01,2013-11-18 07:23:00,
2013-11-18 01:24:00,43.3,38.2,29.26,West,266,4.9,5.4,82,0.00,,CLR,0.00,VWS V14.01,2013-11-18 07:24:00,
2013-11-18 01:25:00,43.3,38.2,29.26,WNW,283,6.3,6.3,82,0.00,,CLR,0.00,VWS V14.01,2013-11-18 07:25:00,
2013-11-18 01:26:00,43.3,37.6,29.26,West,270,4.9,4.9,80,0.00,,CLR,0.00,VWS V14.01,2013-11-18 07:26:00,
2013-11-18 01:27:00,43.2,37.4,29.26,West,281,4.0,4.9,80,0.00,,CLR,0.00,VWS V14.01,2013-11-18 07:27:00,
2013-11-18 01:29:00,43.2,37.4,29.26,WNW,284,3.6,4.0,80,0.00,,CLR,0.00,VWS V14.01,2013-11-18 07:29:00,
2013-11-18 01:30:00,43.0,37.2,29.26,West,280,3.1,4.0,80,0.00,,CLR,0.00,VWS V14.01,2013-11-18 07:30:00,
2013-11-18 01:31:00,43.0,37.2,29.26,West,270,4.0,4.0,80,0.00,,CLR,0.00,VWS V14.01,2013-11-18 07:31:00,
2013-11-18 01:32:00,43.0,37.2,29.26,WNW,285,3.1,4.0,80,0.00,,CLR,0.00,VWS V14.01,2013-11-18 07:32:00,
2013-11-18 01:34:00,43.0,37.2,29.26,West,270,3.6,4.0,80,0.00,,CLR,0.00,VWS V14.01,2013-11-18 07:34:00,
2013-11-18 01:35:00,43.0,37.2,29.26,West,272,3.6,4.0,80,0.00,,CLR,0.00,VWS V14.01,2013-11-18 07:35:00,
2013-11-18 01:37:00,42.8,37.1,29.26,West,260,4.0,4.0,80,0.00,,CLR,0.00,VWS V14.01,2013-11-18 07:37:00,
2013-11-18 01:38:00,42.8,37.1,29.26,West,265,3.6,5.4,80,0.00,,CLR,0.00,VWS V14.01,2013-11-18 07:38:00,
2013-11-18 01:40:00,42.8,36.4,29.26,WNW,294,4.9,4.9,78,0.00,,CLR,0.00,VWS V14.01,2013-11-18 07:40:00,
2013-11-18 01:42:00,42.6,36.9,29.26,West,279,4.0,4.0,80,0.00,,CLR,0.00,VWS V14.01,2013-11-18 07:42:00,
2013-11-18 01:44:00,42.6,36.9,29.26,WNW,293,4.9,4.9,80,0.00,,CLR,0.00,VWS V14.01,2013-11-18 07:44:00,
2013-11-18 01:45:00,42.4,36.7,29.26,NW,310,4.0,4.0,80,0.00,,CLR,0.00,VWS V14.01,2013-11-18 07:45:00,
2013-11-18 01:47:00,42.4,36.7,29.26,WNW,282,5.4,5.4,80,0.00,,CLR,0.00,VWS V14.01,2013-11-18 07:47:00,
2013-11-18 01:49:00,42.4,36.7,29.26,West,278,4.9,5.8,80,0.00,,CLR,0.00,VWS V14.01,2013-11-18 07:49:00,
2013-11-18 01:50:00,42.4,36.7,29.26,West,278,3.1,4.0,80,0.00,,CLR,0.00,VWS V14.01,2013-11-18 07:50:00,
2013-11-18 01:52:00,42.4,36.7,29.26,West,277,2.7,2.7,80,0.00,,CLR,0.00,VWS V14.01,2013-11-18 07:52:00,
2013-11-18 01:54:00,42.4,36.7,29.26,WNW,290,3.6,4.5,80,0.00,,CLR,0.00,VWS V14.01,2013-11-18 07:54:00,
2013-11-18 01:55:00,42.3,36.5,29.26,WSW,252,3.6,3.6,80,0.00,,CLR,0.00,VWS V14.01,2013-11-18 07:55:00,
2013-11-18 01:57:00,42.3,36.5,29.26,West,270,3.6,3.6,80,0.00,,CLR,0.00,VWS V14.01,2013-11-18 07:57:00,
2013-11-18 01:58:00,42.3,36.5,29.26,WNW,283,3.6,3.6,80,0.00,,CLR,0.00,VWS V14.01,2013-11-18 07:58:00,
2013-11-18 02:01:00,42.3,36.5,29.26,West,281,2.7,3.1,80,0.00,,CLR,0.00,VWS V14.01,2013-11-18 08:01:00,
2013-11-18 02:02:00,42.3,36.5,29.26,WNW,298,3.6,3.6,80,0.00,,CLR,0.00,VWS V14.01,2013-11-18 08:02:00,
2013-11-18 02:03:00,42.3,36.5,29.26,WNW,284,2.7,4.9,80,0.00,,CLR,0.00,VWS V14.01,2013-11-18 08:03:00,
2013-11-18 02:06:00,42.1,36.4,29.26,West,274,3.1,4.0,80,0.00,,CLR,0.00,VWS V14.01,2013-11-18 08:06:00,
2013-11-18 02:08:00,41.9,36.2,29.26,West,274,2.7,2.7,80,0.00,,CLR,0.00,VWS V14.01,2013-11-18 08:08:00,
2013-11-18 02:09:00,41.7,36.0,29.26,West,265,3.6,3.6,80,0.00,,CLR,0.00,VWS V14.01,2013-11-18 08:09:00,
2013-11-18 02:12:00,41.5,35.8,29.26,West,266,3.1,3.6,80,0.00,,CLR,0.00,VWS V14.01,2013-11-18 08:12:00,
2013-11-18 02:13:00,41.4,35.7,29.26,West,267,3.1,3.1,80,0.00,,CLR,0.00,VWS V14.01,2013-11-18 08:13:00,
2013-11-18 02:14:00,41.4,35.7,29.26,West,266,3.6,3.6,80,0.00,,CLR,0.00,VWS V14.01,2013-11-18 08:14:00,
2013-11-18 02:15:00,41.2,35.5,29.26,West,269,4.0,4.0,80,0.00,,CLR,0.00,VWS V14.01,2013-11-18 08:15:00,
2013-11-18 02:16:00,41.2,35.5,29.26,West,269,2.2,4.0,80,0.00,,CLR,0.00,VWS V14.01,2013-11-18 08:16:00,
2013-11-18 02:19:00,41.2,35.5,29.26,West,269,3.6,3.6,80,0.00,,CLR,0.00,VWS V14.01,2013-11-18 08:19:00,
2013-11-18 02:20:00,41.2,35.5,29.26,West,269,3.6,3.6,80,0.00,,CLR,0.00,VWS V14.01,2013-11-18 08:20:00,
2013-11-18 02:21:00,41.0,35.3,29.26,West,269,3.6,4.0,80,0.00,,CLR,0.00,VWS V14.01,2013-11-18 08:21:00,
2013-11-18 02:25:00,41.0,35.3,29.26,West,276,2.7,3.6,80,0.00,,CLR,0.00,VWS V14.01,2013-11-18 08:25:00,
2013-11-18 02:26:00,41.2,35.5,29.26,West,276,3.1,3.6,80,0.00,,CLR,0.00,VWS V14.01,2013-11-18 08:26:00,
2013-11-18 02:27:00,41.2,35.5,29.26,West,276,2.7,3.1,80,0.00,,CLR,0.00,VWS V14.01,2013-11-18 08:27:00,
2013-11-18 02:28:00,41.2,35.5,29.26,West,276,2.7,3.6,80,0.00,,CLR,0.00,VWS V14.01,2013-11-18 08:28:00,
2013-11-18 02:30:00,41.0,35.3,29.26,West,267,2.7,3.6,80,0.00,,CLR,0.00,VWS V14.01,2013-11-18 08:30:00,
2013-11-18 02:31:00,41.2,35.5,29.26,West,268,2.2,4.0,80,0.00,,CLR,0.00,VWS V14.01,2013-11-18 08:31:00,
2013-11-18 02:33:00,41.2,35.5,29.26,West,260,3.1,3.6,80,0.00,,CLR,0.00,VWS V14.01,2013-11-18 08:33:00,
2013-11-18 02:34:00,41.2,35.5,29.26,West,277,3.1,3.1,80,0.00,,CLR,0.00,VWS V14.01,2013-11-18 08:34:00,
2013-11-18 02:36:00,41.2,35.5,29.26,West,275,3.6,4.9,80,0.00,,CLR,0.00,VWS V14.01,2013-11-18 08:36:00,
2013-11-18 02:39:00,41.4,35.7,29.26,West,274,2.7,2.7,80,0.00,,CLR,0.00,VWS V14.01,2013-11-18 08:39:00,
2013-11-18 02:41:00,41.4,35.7,29.26,West,274,4.0,4.0,80,0.00,,CLR,0.00,VWS V14.01,2013-11-18 08:41:00,
2013-11-18 02:42:00,41.4,35.7,29.26,West,274,2.7,4.0,80,0.00,,CLR,0.00,VWS V14.01,2013-11-18 08:42:00,
2013-11-18 02:44:00,41.5,36.5,29.26,WNW,285,2.7,3.6,82,0.00,,CLR,0.00,VWS V14.01,2013-11-18 08:44:00,
2013-11-18 02:45:00,41.5,36.5,29.26,WNW,286,2.7,3.6,82,0.00,,CLR,0.00,VWS V14.01,2013-11-18 08:45:00,
2013-11-18 02:46:00,41.5,36.5,29.26,WNW,285,2.7,3.6,82,0.00,,CLR,0.00,VWS V14.01,2013-11-18 08:46:00,
2013-11-18 02:47:00,41.5,36.5,29.26,West,276,3.1,4.9,82,0.00,,CLR,0.00,VWS V14.01,2013-11-18 08:47:00,
2013-11-18 02:49:00,41.5,36.5,29.26,WNW,284,4.5,5.8,82,0.00,,CLR,0.00,VWS V14.01,2013-11-18 08:49:00,
2013-11-18 02:50:00,41.5,36.5,29.26,West,271,4.0,4.5,82,0.00,,CLR,0.00,VWS V14.01,2013-11-18 08:50:00,
2013-11-18 02:52:00,41.5,36.5,29.26,West,280,3.1,3.1,82,0.00,,CLR,0.00,VWS V14.01,2013-11-18 08:52:00,
2013-11-18 02:54:00,41.4,36.3,29.26,West,275,2.7,4.0,82,0.00,,CLR,0.00,VWS V14.01,2013-11-18 08:54:00,
2013-11-18 02:55:00,41.2,36.1,29.26,West,281,3.1,4.0,82,0.00,,CLR,0.00,VWS V14.01,2013-11-18 08:55:00,
2013-11-18 02:57:00,41.2,36.1,29.26,West,279,4.9,5.8,82,0.00,,CLR,0.00,VWS V14.01,2013-11-18 08:57:00,
2013-11-18 02:58:00,41.2,36.1,29.26,WNW,285,3.6,4.9,82,0.00,,CLR,0.00,VWS V14.01,2013-11-18 08:58:00,
2013-11-18 02:59:00,41.2,36.1,29.26,West,271,3.6,4.0,82,0.00,,CLR,0.00,VWS V14.01,2013-11-18 08:59:00,
2013-11-18 03:02:00,41.4,36.3,29.26,West,269,4.0,4.0,82,0.00,,CLR,0.00,VWS V14.01,2013-11-18 09:02:00,
2013-11-18 03:03:00,41.4,36.3,29.26,WNW,294,4.9,4.9,82,0.00,,CLR,0.00,VWS V14.01,2013-11-18 09:03:00,
2013-11-18 03:05:00,41.5,37.1,29.26,West,277,3.1,3.6,84,0.00,,CLR,0.00,VWS V14.01,2013-11-18 09:05:00,
2013-11-18 03:07:00,41.5,37.1,29.26,WNW,286,4.0,4.0,84,0.00,,CLR,0.00,VWS V14.01,2013-11-18 09:07:00,
2013-11-18 03:08:00,41.5,37.1,29.26,WNW,293,4.9,4.9,84,0.00,,CLR,0.00,VWS V14.01,2013-11-18 09:08:00,
2013-11-18 03:10:00,41.5,37.1,29.26,West,272,2.7,4.0,84,0.00,,CLR,0.00,VWS V14.01,2013-11-18 09:10:00,
2013-11-18 03:11:00,41.5,37.1,29.26,WNW,300,4.9,5.4,84,0.00,,CLR,0.00,VWS V14.01,2013-11-18 09:11:00,
2013-11-18 03:12:00,41.5,37.1,29.26,WNW,292,3.1,4.9,84,0.00,,CLR,0.00,VWS V14.01,2013-11-18 09:12:00,
2013-11-18 03:13:00,41.7,37.2,29.26,West,274,4.0,4.0,84,0.00,,CLR,0.00,VWS V14.01,2013-11-18 09:13:00,
2013-11-18 03:14:00,41.7,37.2,29.26,WNW,298,4.0,6.3,84,0.00,,CLR,0.00,VWS V14.01,2013-11-18 09:14:00,
2013-11-18 03:15:00,41.7,37.2,29.26,WNW,282,3.6,5.4,84,0.00,,CLR,0.00,VWS V14.01,2013-11-18 09:15:00,
2013-11-18 03:17:00,41.7,37.2,29.26,West,277,3.6,4.9,84,0.00,,CLR,0.00,VWS V14.01,2013-11-18 09:17:00,
2013-11-18 03:18:00,41.7,37.2,29.26,WNW,285,6.3,6.3,84,0.00,,CLR,0.00,VWS V14.01,2013-11-18 09:18:00,
2013-11-18 03:19:00,41.7,37.2,29.26,NW,314,5.8,6.3,84,0.00,,CLR,0.00,VWS V14.01,2013-11-18 09:19:00,
2013-11-18 03:21:00,41.5,36.5,29.26,West,265,6.3,6.3,82,0.00,,CLR,0.00,VWS V14.01,2013-11-18 09:21:00,
2013-11-18 03:22:00,41.5,36.5,29.26,WNW,298,4.0,5.4,82,0.00,,CLR,0.00,VWS V14.01,2013-11-18 09:22:00,
2013-11-18 03:24:00,41.5,36.5,29.26,NW,311,4.0,4.0,82,0.00,,CLR,0.00,VWS V14.01,2013-11-18 09:24:00,
2013-11-18 03:25:00,41.5,36.5,29.26,NW,311,3.1,4.0,82,0.00,,CLR,0.00,VWS V14.01,2013-11-18 09:25:00,
2013-11-18 03:26:00,41.4,36.3,29.26,WNW,293,5.4,5.4,82,0.00,,CLR,0.00,VWS V14.01,2013-11-18 09:26:00,
2013-11-18 03:28:00,41.5,36.5,29.26,NW,317,4.9,4.9,82,0.00,,CLR,0.00,VWS V14.01,2013-11-18 09:28:00,
2013-11-18 03:30:00,41.5,36.5,29.26,NW,307,4.0,5.4,82,0.00,,CLR,0.00,VWS V14.01,2013-11-18 09:30:00,
2013-11-18 03:31:00,41.5,35.8,29.26,WNW,290,5.4,5.4,80,0.00,,CLR,0.00,VWS V14.01,2013-11-18 09:31:00,
2013-11-18 03:33:00,41.5,35.8,29.26,NW,310,4.9,4.9,80,0.00,,CLR,0.00,VWS V14.01,2013-11-18 09:33:00,
2013-11-18 03:35:00,41.5,35.8,29.26,NW,308,4.9,5.4,80,0.00,,CLR,0.00,VWS V14.01,2013-11-18 09:35:00,
2013-11-18 03:37:00,41.5,35.8,29.26,West,277,6.3,6.3,80,0.00,,CLR,0.00,VWS V14.01,2013-11-18 09:37:00,
2013-11-18 03:39:00,41.5,35.8,29.26,WNW,296,3.6,4.9,80,0.00,,CLR,0.00,VWS V14.01,2013-11-18 09:39:00,
2013-11-18 03:40:00,41.5,35.8,29.26,WNW,303,4.5,5.4,80,0.00,,CLR,0.00,VWS V14.01,2013-11-18 09:40:00,
2013-11-18 03:42:00,41.4,35.0,29.26,WNW,287,4.9,4.9,78,0.00,,CLR,0.00,VWS V14.01,2013-11-18 09:42:00,
2013-11-18 03:44:00,41.2,34.8,29.26,WNW,286,4.0,5.4,78,0.00,,CLR,0.00,VWS V14.01,2013-11-18 09:44:00,
2013-11-18 03:46:00,41.2,34.8,29.26,WNW,284,2.7,3.6,78,0.00,,CLR,0.00,VWS V14.01,2013-11-18 09:46:00,
2013-11-18 03:47:00,41.2,34.8,29.26,West,268,3.6,3.6,78,0.00,,CLR,0.00,VWS V14.01,2013-11-18 09:47:00,
2013-11-18 03:48:00,41.0,34.7,29.26,West,273,5.4,5.4,78,0.00,,CLR,0.00,VWS V14.01,2013-11-18 09:48:00,
2013-11-18 03:50:00,41.0,34.7,29.26,NW,312,4.0,4.0,78,0.00,,CLR,0.00,VWS V14.01,2013-11-18 09:50:00,
2013-11-18 03:52:00,41.0,34.7,29.26,WNW,294,5.4,5.4,78,0.00,,CLR,0.00,VWS V14.01,2013-11-18 09:52:00,
2013-11-18 03:53:00,40.8,35.1,29.26,West,279,3.1,3.6,80,0.00,,CLR,0.00,VWS V14.01,2013-11-18 09:53:00,
2013-11-18 03:54:00,40.8,35.1,29.26,NW,304,5.8,5.8,80,0.00,,CLR,0.00,VWS V14.01,2013-11-18 09:54:00,
2013-11-18 03:56:00,41.0,35.3,29.26,West,273,4.9,4.9,80,0.00,,CLR,0.00,VWS V14.01,2013-11-18 09:56:00,
2013-11-18 03:57:00,41.0,35.3,29.26,West,271,4.0,4.5,80,0.00,,CLR,0.00,VWS V14.01,2013-11-18 09:57:00,
2013-11-18 03:58:00,41.0,35.3,29.26,West,266,6.3,6.3,80,0.00,,CLR,0.00,VWS V14.01,2013-11-18 09:58:00,
2013-11-18 03:59:00,41.0,35.3,29.26,West,270,3.6,4.0,80,0.00,,CLR,0.00,VWS V14.01,2013-11-18 09:59:00,
2013-11-18 04:00:00,41.0,35.3,29.26,West,278,5.8,7.6,80,0.00,,CLR,0.00,VWS V14.01,2013-11-18 10:00:00,
2013-11-18 04:02:00,40.8,35.1,29.26,West,276,6.3,6.3,80,0.00,,CLR,0.00,VWS V14.01,2013-11-18 10:02:00,
2013-11-18 04:04:00,40.8,35.1,29.26,West,270,6.3,6.3,80,0.00,,CLR,0.00,VWS V14.01,2013-11-18 10:04:00,
2013-11-18 04:05:00,40.8,35.1,29.26,West,265,6.3,6.3,80,0.00,,CLR,0.00,VWS V14.01,2013-11-18 10:05:00,
2013-11-18 04:06:00,40.8,35.1,29.26,West,279,4.0,5.4,80,0.00,,CLR,0.00,VWS V14.01,2013-11-18 10:06:00,
2013-11-18 04:08:00,40.6,35.0,29.26,West,280,5.8,6.3,80,0.00,,CLR,0.00,VWS V14.01,2013-11-18 10:08:00,
2013-11-18 04:09:00,40.6,35.0,29.26,West,275,6.3,6.3,80,0.00,,CLR,0.00,VWS V14.01,2013-11-18 10:09:00,
2013-11-18 04:10:00,40.6,35.0,29.26,West,281,4.9,6.3,80,0.00,,CLR,0.00,VWS V14.01,2013-11-18 10:10:00,
2013-11-18 04:11:00,40.6,35.0,29.26,WNW,288,6.3,6.3,80,0.00,,CLR,0.00,VWS V14.01,2013-11-18 10:11:00,
2013-11-18 04:12:00,40.6,35.0,29.26,WSW,256,5.4,6.3,80,0.00,,CLR,0.00,VWS V14.01,2013-11-18 10:12:00,
2013-11-18 04:13:00,40.6,35.0,29.26,NW,304,5.8,5.8,80,0.00,,CLR,0.00,VWS V14.01,2013-11-18 10:13:00,
2013-11-18 04:14:00,40.6,35.0,29.26,WSW,253,5.8,5.8,80,0.00,,CLR,0.00,VWS V14.01,2013-11-18 10:14:00,
2013-11-18 04:15:00,40.6,35.0,29.26,West,259,5.8,5.8,80,0.00,,CLR,0.00,VWS V14.01,2013-11-18 10:15:00,
2013-11-18 04:17:00,40.6,35.0,29.26,West,272,5.4,5.4,80,0.00,,CLR,0.00,VWS V14.01,2013-11-18 10:17:00,
2013-11-18 04:19:00,40.6,35.0,29.26,WNW,289,6.3,6.3,80,0.00,,CLR,0.00,VWS V14.01,2013-11-18 10:19:00,
2013-11-18 04:20:00,40.6,35.0,29.26,WNW,293,5.4,6.3,80,0.00,,CLR,0.00,VWS V14.01,2013-11-18 10:20:00,
2013-11-18 04:21:00,40.8,35.1,29.26,West,279,4.9,5.8,80,0.00,,CLR,0.00,VWS V14.01,2013-11-18 10:21:00,
2013-11-18 04:24:00,40.6,35.0,29.26,West,271,4.0,4.9,80,0.00,,CLR,0.00,VWS V14.01,2013-11-18 10:24:00,
2013-11-18 04:25:00,40.6,35.0,29.26,WNW,293,4.0,4.9,80,0.00,,CLR,0.00,VWS V14.01,2013-11-18 10:25:00,
2013-11-18 04:26:00,40.6,35.0,29.26,WNW,299,4.0,6.3,80,0.00,,CLR,0.00,VWS V14.01,2013-11-18 10:26:00,
2013-11-18 04:27:00,40.5,34.8,29.26,WNW,286,4.0,4.0,80,0.00,,CLR,0.00,VWS V14.01,2013-11-18 10:27:00,
2013-11-18 04:29:00,40.5,34.8,29.26,West,279,2.7,4.0,80,0.00,,CLR,0.00,VWS V14.01,2013-11-18 10:29:00,
2013-11-18 04:30:00,40.6,35.0,29.26,WNW,288,4.0,5.8,80,0.00,,CLR,0.00,VWS V14.01,2013-11-18 10:30:00,
2013-11-18 04:31:00,40.6,35.0,29.26,West,273,5.8,5.8,80,0.00,,CLR,0.00,VWS V14.01,2013-11-18 10:31:00,
2013-11-18 04:32:00,40.6,35.0,29.26,WNW,293,4.9,5.8,80,0.00,,CLR,0.00,VWS V14.01,2013-11-18 10:32:00,
2013-11-18 04:33:00,40.6,35.0,29.26,WNW,285,4.0,5.4,80,0.00,,CLR,0.00,VWS V14.01,2013-11-18 10:33:00,
2013-11-18 04:36:00,40.5,34.8,29.26,WNW,284,3.6,5.4,80,0.00,,CLR,0.00,VWS V14.01,2013-11-18 10:36:00,
2013-11-18 04:37:00,40.5,34.8,29.26,West,279,3.6,5.8,80,0.00,,CLR,0.00,VWS V14.01,2013-11-18 10:37:00,
2013-11-18 04:38:00,40.3,34.6,29.26,West,277,4.9,4.9,80,0.00,,CLR,0.00,VWS V14.01,2013-11-18 10:38:00,
2013-11-18 04:39:00,40.3,34.6,29.26,West,270,3.6,6.3,80,0.00,,CLR,0.00,VWS V14.01,2013-11-18 10:39:00,
2013-11-18 04:41:00,40.3,34.6,29.26,West,275,4.9,5.4,80,0.00,,CLR,0.00,VWS V14.01,2013-11-18 10:41:00,
2013-11-18 04:42:00,40.3,34.6,29.26,West,277,4.9,5.4,80,0.00,,CLR,0.00,VWS V14.01,2013-11-18 10:42:00,
2013-11-18 04:43:00,40.3,34.6,29.26,West,267,5.4,6.3,80,0.00,,CLR,0.00,VWS V14.01,2013-11-18 10:43:00,
2013-11-18 04:44:00,40.3,34.6,29.26,WNW,287,4.0,5.8,80,0.00,,CLR,0.00,VWS V14.01,2013-11-18 10:44:00,
2013-11-18 04:46:00,40.1,34.4,29.26,West,269,5.4,5.4,80,0.00,,CLR,0.00,VWS V14.01,2013-11-18 10:46:00,
2013-11-18 04:47:00,40.1,34.4,29.26,WNW,285,4.0,4.9,80,0.00,,CLR,0.00,VWS V14.01,2013-11-18 10:47:00,
2013-11-18 04:49:00,40.1,34.4,29.26,WNW,294,5.8,5.8,80,0.00,,CLR,0.00,VWS V14.01,2013-11-18 10:49:00,
2013-11-18 04:50:00,40.1,34.4,29.26,West,273,3.6,4.0,80,0.00,,CLR,0.00,VWS V14.01,2013-11-18 10:50:00,
2013-11-18 04:51:00,39.9,34.3,29.26,West,270,4.0,5.8,80,0.00,,CLR,0.00,VWS V14.01,2013-11-18 10:51:00,
2013-11-18 04:52:00,39.9,34.3,29.26,West,271,4.0,6.3,80,0.00,,CLR,0.00,VWS V14.01,2013-11-18 10:52:00,
2013-11-18 04:55:00,39.7,34.1,29.26,West,269,4.9,4.9,80,0.00,,CLR,0.00,VWS V14.01,2013-11-18 10:55:00,
2013-11-18 04:57:00,39.7,34.1,29.26,WNW,295,3.1,5.4,80,0.00,,CLR,0.00,VWS V14.01,2013-11-18 10:57:00,
2013-11-18 04:58:00,39.7,34.1,29.26,WSW,254,4.0,5.8,80,0.00,,CLR,0.00,VWS V14.01,2013-11-18 10:58:00,
2013-11-18 05:01:00,39.6,33.9,29.26,WSW,244,4.0,5.4,80,0.00,,CLR,0.00,VWS V14.01,2013-11-18 11:01:00,
2013-11-18 05:02:00,39.6,33.9,29.26,West,263,3.6,4.9,80,0.00,,CLR,0.00,VWS V14.01,2013-11-18 11:02:00,
2013-11-18 05:03:00,39.6,33.9,29.26,West,267,4.0,4.0,80,0.00,,CLR,0.00,VWS V14.01,2013-11-18 11:03:00,
2013-11-18 05:07:00,39.4,33.7,29.26,West,267,5.4,5.4,80,0.00,,CLR,0.00,VWS V14.01,2013-11-18 11:07:00,
2013-11-18 05:08:00,39.4,33.7,29.26,West,273,5.8,5.8,80,0.00,,CLR,0.00,VWS V14.01,2013-11-18 11:08:00,
2013-11-18 05:09:00,39.4,34.3,29.29,West,259,4.9,6.7,82,0.00,,CLR,0.00,VWS V14.01,2013-11-18 11:09:00,
2013-11-18 05:13:00,39.4,34.3,29.29,West,261,6.3,6.3,82,0.00,,CLR,0.00,VWS V14.01,2013-11-18 11:13:00,
2013-11-18 05:14:00,39.4,34.3,29.29,West,271,4.0,6.7,82,0.00,,CLR,0.00,VWS V14.01,2013-11-18 11:14:00,
2013-11-18 05:15:00,39.4,34.3,29.29,West,267,3.6,3.6,82,0.00,,CLR,0.00,VWS V14.01,2013-11-18 11:15:00,
2013-11-18 05:16:00,39.6,34.5,29.29,West,276,4.9,6.3,82,0.00,,CLR,0.00,VWS V14.01,2013-11-18 11:16:00,
2013-11-18 05:18:00,39.6,34.5,29.29,West,276,6.3,6.3,82,0.00,,CLR,0.00,VWS V14.01,2013-11-18 11:18:00,
2013-11-18 05:19:00,39.6,34.5,29.29,West,274,6.3,6.3,82,0.00,,CLR,0.00,VWS V14.01,2013-11-18 11:19:00,
2013-11-18 05:20:00,39.7,34.7,29.29,West,273,4.9,6.3,82,0.00,,CLR,0.00,VWS V14.01,2013-11-18 11:20:00,
2013-11-18 05:22:00,39.7,34.7,29.29,WNW,297,3.6,4.9,82,0.00,,CLR,0.00,VWS V14.01,2013-11-18 11:22:00,
2013-11-18 05:23:00,39.6,34.5,29.29,WNW,284,5.4,5.8,82,0.00,,CLR,0.00,VWS V14.01,2013-11-18 11:23:00,
2013-11-18 05:25:00,39.6,34.5,29.29,West,271,3.6,6.3,82,0.00,,CLR,0.00,VWS V14.01,2013-11-18 11:25:00,
2013-11-18 05:27:00,39.6,34.5,29.29,West,266,6.3,6.3,82,0.00,,CLR,0.00,VWS V14.01,2013-11-18 11:27:00,
2013-11-18 05:29:00,39.6,34.5,29.29,West,259,6.3,6.3,82,0.00,,CLR,0.00,VWS V14.01,2013-11-18 11:29:00,
2013-11-18 05:30:00,39.6,34.5,29.29,WNW,293,5.4,6.3,82,0.00,,CLR,0.00,VWS V14.01,2013-11-18 11:30:00,
2013-11-18 05:33:00,39.7,34.7,29.29,WNW,288,3.1,5.8,82,0.00,,CLR,0.00,VWS V14.01,2013-11-18 11:33:00,
2013-11-18 05:35:00,39.7,34.7,29.29,West,273,4.0,5.8,82,0.00,,CLR,0.00,VWS V14.01,2013-11-18 11:35:00,
2013-11-18 05:36:00,39.6,34.5,29.29,West,260,4.0,6.3,82,0.00,,CLR,0.00,VWS V14.01,2013-11-18 11:36:00,
2013-11-18 05:37:00,39.6,34.5,29.29,WNW,302,4.9,5.8,82,0.00,,CLR,0.00,VWS V14.01,2013-11-18 11:37:00,
2013-11-18 05:39:00,39.4,34.3,29.29,West,267,5.8,5.8,82,0.00,,CLR,0.00,VWS V14.01,2013-11-18 11:39:00,
2013-11-18 05:40:00,39.4,34.3,29.29,WSW,254,5.4,5.4,82,0.00,,CLR,0.00,VWS V14.01,2013-11-18 11:40:00,
2013-11-18 05:41:00,39.4,34.3,29.29,West,269,3.1,6.3,82,0.00,,CLR,0.00,VWS V14.01,2013-11-18 11:41:00,
2013-11-18 05:42:00,39.4,34.3,29.29,West,275,3.1,4.0,82,0.00,,CLR,0.00,VWS V14.01,2013-11-18 11:42:00,
2013-11-18 05:43:00,39.2,34.2,29.29,West,265,2.7,5.4,82,0.00,,CLR,0.00,VWS V14.01,2013-11-18 11:43:00,
2013-11-18 05:45:00,39.0,34.0,29.29,West,271,5.8,5.8,82,0.00,,CLR,0.00,VWS V14.01,2013-11-18 11:45:00,
2013-11-18 05:47:00,39.0,34.0,29.29,West,265,3.6,5.8,82,0.00,,CLR,0.00,VWS V14.01,2013-11-18 11:47:00,
2013-11-18 05:48:00,39.0,34.0,29.29,West,271,4.9,5.4,82,0.00,,CLR,0.00,VWS V14.01,2013-11-18 11:48:00,
2013-11-18 05:49:00,39.0,34.0,29.29,WNW,294,4.9,5.4,82,0.00,,CLR,0.00,VWS V14.01,2013-11-18 11:49:00,
2013-11-18 05:51:00,39.0,34.0,29.29,WNW,288,4.0,4.0,82,0.00,,CLR,0.00,VWS V14.01,2013-11-18 11:51:00,
2013-11-18 05:53:00,39.0,34.6,29.29,WNW,290,3.1,4.0,84,0.00,,CLR,0.00,VWS V14.01,2013-11-18 11:53:00,
2013-11-18 05:54:00,39.0,34.6,29.29,WNW,283,4.0,4.5,84,0.00,,CLR,0.00,VWS V14.01,2013-11-18 11:54:00,
2013-11-18 05:55:00,39.0,34.6,29.29,WNW,291,4.0,5.4,84,0.00,,CLR,0.00,VWS V14.01,2013-11-18 11:55:00,
2013-11-18 05:56:00,39.0,34.6,29.29,WNW,291,3.6,5.4,84,0.00,,CLR,0.00,VWS V14.01,2013-11-18 11:56:00,
2013-11-18 05:57:00,39.0,34.6,29.29,NW,306,3.6,3.6,84,0.00,,CLR,0.00,VWS V14.01,2013-11-18 11:57:00,
2013-11-18 05:58:00,39.0,34.6,29.29,West,266,4.0,4.0,84,0.00,,CLR,0.00,VWS V14.01,2013-11-18 11:58:00,
2013-11-18 05:59:00,39.0,34.6,29.29,West,281,4.0,4.0,84,0.00,,CLR,0.00,VWS V14.01,2013-11-18 11:59:00,
2013-11-18 06:00:00,39.0,34.6,29.29,WNW,283,2.7,4.0,84,0.00,,CLR,0.00,VWS V14.01,2013-11-18 12:00:00,
2013-11-18 06:01:00,38.8,34.4,29.29,WNW,285,2.7,4.0,84,0.00,,CLR,0.00,VWS V14.01,2013-11-18 12:01:00,
2013-11-18 06:02:00,38.8,34.4,29.29,WNW,300,4.9,5.4,84,0.00,,CLR,0.00,VWS V14.01,2013-11-18 12:02:00,
2013-11-18 06:04:00,38.7,34.2,29.29,WNW,303,3.1,4.0,84,0.00,,CLR,0.00,VWS V14.01,2013-11-18 12:04:00,
2013-11-18 06:05:00,38.7,34.2,29.29,WNW,296,4.0,4.0,84,0.00,,CLR,0.00,VWS V14.01,2013-11-18 12:05:00,
2013-11-18 06:07:00,38.7,34.2,29.29,NW,319,3.1,5.4,84,0.00,,CLR,0.00,VWS V14.01,2013-11-18 12:07:00,
2013-11-18 06:10:00,38.5,34.1,29.29,WNW,301,4.0,4.0,84,0.00,,CLR,0.00,VWS V14.01,2013-11-18 12:10:00,
2013-11-18 06:11:00,38.3,33.9,29.29,WNW,301,3.6,4.0,84,0.00,,CLR,0.00,VWS V14.01,2013-11-18 12:11:00,
2013-11-18 06:12:00,38.3,33.9,29.29,WNW,301,3.1,3.1,84,0.00,,CLR,0.00,VWS V14.01,2013-11-18 12:12:00,
2013-11-18 06:13:00,38.3,33.9,29.29,WNW,301,3.6,4.9,84,0.00,,CLR,0.00,VWS V14.01,2013-11-18 12:13:00,
2013-11-18 06:15:00,38.5,34.7,29.29,WNW,296,4.0,4.0,86,0.00,,CLR,0.00,VWS V14.01,2013-11-18 12:15:00,
2013-11-18 06:16:00,38.5,34.7,29.29,WNW,296,4.0,4.0,86,0.00,,CLR,0.00,VWS V14.01,2013-11-18 12:16:00,
2013-11-18 06:18:00,38.3,34.5,29.29,NW,320,4.9,5.4,86,0.00,,CLR,0.00,VWS V14.01,2013-11-18 12:18:00,
2013-11-18 06:21:00,38.3,34.5,29.29,NW,319,4.0,4.9,86,0.00,,CLR,0.00,VWS V14.01,2013-11-18 12:21:00,
2013-11-18 06:22:00,38.1,34.3,29.29,NW,319,2.7,3.6,86,0.00,,CLR,0.00,VWS V14.01,2013-11-18 12:22:00,
2013-11-18 06:23:00,38.3,34.5,29.29,NW,312,3.6,3.6,86,0.00,,CLR,0.00,VWS V14.01,2013-11-18 12:23:00,
2013-11-18 06:24:00,38.3,34.5,29.29,NW,313,4.0,4.0,86,0.00,,CLR,0.00,VWS V14.01,2013-11-18 12:24:00,
2013-11-18 06:26:00,38.3,34.5,29.29,WNW,295,3.1,3.6,86,0.00,,CLR,0.00,VWS V14.01,2013-11-18 12:26:00,
2013-11-18 06:27:00,38.1,34.3,29.29,NW,310,4.9,4.9,86,0.00,,CLR,0.00,VWS V14.01,2013-11-18 12:27:00,
2013-11-18 06:29:00,38.1,34.3,29.29,WNW,297,5.4,5.4,86,0.00,,CLR,0.00,VWS V14.01,2013-11-18 12:29:00,
2013-11-18 06:31:00,38.3,35.1,29.29,NW,310,4.0,4.0,88,0.00,,CLR,0.00,VWS V14.01,2013-11-18 12:31:00,
2013-11-18 06:32:00,38.3,35.1,29.29,NW,310,4.0,4.0,88,0.00,,CLR,0.00,VWS V14.01,2013-11-18 12:32:00,
2013-11-18 06:33:00,38.3,35.1,29.29,NW,310,2.2,4.0,88,0.00,,CLR,0.00,VWS V14.01,2013-11-18 12:33:00,
2013-11-18 06:35:00,38.1,34.3,29.29,NW,310,4.0,4.0,86,0.00,,CLR,0.00,VWS V14.01,2013-11-18 12:35:00,
2013-11-18 06:37:00,37.9,34.1,29.29,NW,310,0.0,0.0,86,0.00,,CLR,0.00,VWS V14.01,2013-11-18 12:37:00,
2013-11-18 06:38:00,37.9,34.1,29.29,West,279,4.0,4.0,86,0.00,,CLR,0.00,VWS V14.01,2013-11-18 12:38:00,
2013-11-18 06:40:00,37.8,34.0,29.32,West,273,2.7,3.1,86,0.00,,CLR,0.00,VWS V14.01,2013-11-18 12:40:00,
2013-11-18 06:41:00,37.8,34.0,29.32,West,273,3.1,3.1,86,0.00,,CLR,0.00,VWS V14.01,2013-11-18 12:41:00,
2013-11-18 06:43:00,37.6,33.8,29.32,West,273,2.7,2.7,86,0.00,,CLR,0.00,VWS V14.01,2013-11-18 12:43:00,
2013-11-18 06:44:00,37.6,33.8,29.32,West,274,2.2,3.6,86,0.00,,CLR,0.00,VWS V14.01,2013-11-18 12:44:00,
2013-11-18 06:45:00,37.4,33.6,29.32,West,274,2.2,2.7,86,0.00,,CLR,0.00,VWS V14.01,2013-11-18 12:45:00,
2013-11-18 06:46:00,37.4,33.6,29.32,West,273,2.2,2.2,86,0.00,,CLR,0.00,VWS V14.01,2013-11-18 12:46:00,
2013-11-18 06:48:00,37.4,33.6,29.32,NW,314,2.7,5.4,86,0.00,,CLR,0.00,VWS V14.01,2013-11-18 12:48:00,
2013-11-18 06:49:00,37.6,34.3,29.32,WSW,254,3.6,3.6,88,0.00,,CLR,0.00,VWS V14.01,2013-11-18 12:49:00,
2013-11-18 06:50:00,37.8,34.5,29.32,West,263,2.7,3.6,88,0.00,,CLR,0.00,VWS V14.01,2013-11-18 12:50:00,
2013-11-18 06:53:00,37.9,34.7,29.32,West,263,0.0,2.7,88,0.00,,CLR,0.00,VWS V14.01,2013-11-18 12:53:00,
2013-11-18 06:54:00,37.8,34.5,29.32,West,263,0.0,0.0,88,0.00,,CLR,0.00,VWS V14.01,2013-11-18 12:54:00,
2013-11-18 06:56:00,37.8,34.5,29.32,West,263,0.0,0.0,88,0.00,,CLR,0.00,VWS V14.01,2013-11-18 12:56:00,
2013-11-18 06:57:00,37.6,34.3,29.32,WNW,293,0.0,0.0,88,0.00,,CLR,0.00,VWS V14.01,2013-11-18 12:57:00,
2013-11-18 06:59:00,37.6,34.3,29.32,WNW,294,0.0,0.0,88,0.00,,CLR,0.00,VWS V14.01,2013-11-18 12:59:00,
2013-11-18 07:00:00,37.6,34.3,29.32,WNW,294,0.0,0.0,88,0.00,,CLR,0.00,VWS V14.01,2013-11-18 13:00:00,
2013-11-18 07:01:00,37.6,34.3,29.32,WNW,294,0.0,0.0,88,0.00,,CLR,0.00,VWS V14.01,2013-11-18 13:01:00,
2013-11-18 07:02:00,37.6,34.3,29.32,WNW,295,3.1,3.1,88,0.00,,CLR,0.00,VWS V14.01,2013-11-18 13:02:00,
2013-11-18 07:04:00,37.6,34.3,29.32,West,281,3.6,3.6,88,0.00,,CLR,0.00,VWS V14.01,2013-11-18 13:04:00,
2013-11-18 07:05:00,37.6,34.3,29.32,West,281,3.6,3.6,88,0.00,,CLR,0.00,VWS V14.01,2013-11-18 13:05:00,
2013-11-18 07:06:00,37.6,34.3,29.32,West,281,2.7,3.6,88,0.00,,CLR,0.00,VWS V14.01,2013-11-18 13:06:00,
2013-11-18 07:07:00,37.4,34.2,29.32,West,281,3.1,3.1,88,0.00,,CLR,0.00,VWS V14.01,2013-11-18 13:07:00,
2013-11-18 07:08:00,37.4,34.2,29.32,West,281,3.1,3.6,88,0.00,,CLR,0.00,VWS V14.01,2013-11-18 13:08:00,
2013-11-18 07:09:00,37.4,34.2,29.35,SW,221,2.7,2.7,88,0.00,,CLR,0.00,VWS V14.01,2013-11-18 13:09:00,
2013-11-18 07:11:00,37.4,34.2,29.35,SW,236,2.7,3.6,88,0.00,,CLR,0.00,VWS V14.01,2013-11-18 13:11:00,
2013-11-18 07:13:00,37.2,34.0,29.35,SW,236,2.7,3.1,88,0.00,,CLR,0.00,VWS V14.01,2013-11-18 13:13:00,
2013-11-18 07:14:00,37.2,34.0,29.35,SW,236,2.2,2.7,88,0.00,,CLR,0.00,VWS V14.01,2013-11-18 13:14:00,
2013-11-18 07:16:00,37.2,34.0,29.35,WSW,251,2.2,4.0,88,0.00,,CLR,0.00,VWS V14.01,2013-11-18 13:16:00,
2013-11-18 07:19:00,37.2,34.0,29.35,West,268,4.0,4.0,88,0.00,,CLR,0.00,VWS V14.01,2013-11-18 13:19:00,
2013-11-18 07:21:00,37.4,34.2,29.35,West,268,3.1,4.0,88,0.00,,CLR,0.00,VWS V14.01,2013-11-18 13:21:00,
2013-11-18 07:23:00,37.2,34.0,29.35,West,271,2.7,3.6,88,0.00,,CLR,0.00,VWS V14.01,2013-11-18 13:23:00,
2013-11-18 07:24:00,37.2,34.0,29.35,West,270,3.1,4.0,88,0.00,,CLR,0.00,VWS V14.01,2013-11-18 13:24:00,
2013-11-18 07:25:00,37.4,34.2,29.35,West,270,2.2,3.1,88,0.00,,CLR,0.00,VWS V14.01,2013-11-18 13:25:00,
2013-11-18 07:26:00,37.4,34.2,29.35,West,270,3.1,3.6,88,0.00,,CLR,0.00,VWS V14.01,2013-11-18 13:26:00,
2013-11-18 07:28:00,37.4,34.2,29.35,West,270,2.7,3.1,88,0.00,,CLR,0.00,VWS V14.01,2013-11-18 13:28:00,
2013-11-18 07:29:00,37.4,34.2,29.35,West,270,3.6,3.6,88,0.00,,CLR,0.00,VWS V14.01,2013-11-18 13:29:00,
2013-11-18 07:30:00,37.6,34.3,29.35,West,269,3.6,3.6,88,0.00,,CLR,0.00,VWS V14.01,2013-11-18 13:30:00,
2013-11-18 07:31:00,37.6,34.3,29.35,West,269,3.6,3.6,88,0.00,,CLR,0.00,VWS V14.01,2013-11-18 13:31:00,
2013-11-18 07:33:00,37.8,34.5,29.35,West,269,4.0,4.0,88,0.00,,CLR,0.00,VWS V14.01,2013-11-18 13:33:00,
2013-11-18 07:34:00,37.8,34.5,29.35,West,269,3.1,4.0,88,0.00,,CLR,0.00,VWS V14.01,2013-11-18 13:34:00,
2013-11-18 07:35:00,37.9,34.7,29.35,West,269,3.6,4.0,88,0.00,,CLR,0.00,VWS V14.01,2013-11-18 13:35:00,
2013-11-18 07:36:00,37.9,34.7,29.35,West,269,3.6,3.6,88,0.00,,CLR,0.00,VWS V14.01,2013-11-18 13:36:00,
2013-11-18 07:37:00,37.9,34.7,29.35,West,268,3.6,4.0,88,0.00,,CLR,0.00,VWS V14.01,2013-11-18 13:37:00,
2013-11-18 07:38:00,38.1,34.9,29.35,WSW,254,4.0,4.9,88,0.00,,CLR,0.00,VWS V14.01,2013-11-18 13:38:00,
2013-11-18 07:39:00,38.3,35.6,29.35,WSW,257,3.1,4.0,90,0.00,,CLR,0.00,VWS V14.01,2013-11-18 13:39:00,
2013-11-18 07:40:00,38.3,35.6,29.35,West,259,4.9,4.9,90,0.00,,CLR,0.00,VWS V14.01,2013-11-18 13:40:00,
2013-11-18 07:43:00,38.5,35.2,29.35,West,261,3.1,3.1,88,0.00,,CLR,0.00,VWS V14.01,2013-11-18 13:43:00,
2013-11-18 07:44:00,38.5,35.2,29.35,WSW,247,4.9,4.9,88,0.00,,CLR,0.00,VWS V14.01,2013-11-18 13:44:00,
2013-11-18 07:46:00,38.7,35.4,29.35,WSW,249,2.7,4.0,88,0.00,,CLR,0.00,VWS V14.01,2013-11-18 13:46:00,
2013-11-18 07:47:00,38.8,36.2,29.35,WSW,251,4.0,4.5,90,0.00,,CLR,0.00,VWS V14.01,2013-11-18 13:47:00,
2013-11-18 07:49:00,39.0,36.3,29.35,WSW,254,5.4,5.4,90,0.00,,CLR,0.00,VWS V14.01,2013-11-18 13:49:00,
2013-11-18 07:50:00,39.0,36.3,29.35,WSW,254,5.4,5.4,90,0.00,,CLR,0.00,VWS V14.01,2013-11-18 13:50:00,
2013-11-18 07:52:00,39.2,36.0,29.35,WSW,254,3.1,4.0,88,0.00,,CLR,0.00,VWS V14.01,2013-11-18 13:52:00,
2013-11-18 07:54:00,39.4,36.1,29.38,WNW,283,4.9,4.9,88,0.00,,CLR,0.00,VWS V14.01,2013-11-18 13:54:00,
2013-11-18 07:55:00,39.6,36.3,29.38,West,267,5.4,5.4,88,0.00,,CLR,0.00,VWS V14.01,2013-11-18 13:55:00,
2013-11-18 07:57:00,39.7,37.0,29.38,WNW,292,5.4,5.4,90,0.00,,CLR,0.00,VWS V14.01,2013-11-18 13:57:00,
2013-11-18 07:59:00,40.1,37.4,29.38,WSW,257,5.8,5.8,90,0.00,,CLR,0.00,VWS V14.01,2013-11-18 13:59:00,
2013-11-18 08:01:00,40.3,37.6,29.38,WNW,302,5.8,5.8,90,0.00,,CLR,0.00,VWS V14.01,2013-11-18 14:01:00,
2013-11-18 08:03:00,40.5,37.8,29.38,WSW,258,6.3,6.3,90,0.00,,CLR,0.00,VWS V14.01,2013-11-18 14:03:00,
2013-11-18 08:04:00,40.6,37.9,29.38,West,267,6.3,6.3,90,0.00,,CLR,0.00,VWS V14.01,2013-11-18 14:04:00,
2013-11-18 08:05:00,40.6,37.4,29.38,WSW,257,6.3,8.1,88,0.00,,CLR,0.00,VWS V14.01,2013-11-18 14:05:00,
2013-11-18 08:06:00,40.8,37.5,29.38,West,274,5.8,6.3,88,0.00,,CLR,0.00,VWS V14.01,2013-11-18 14:06:00,
2013-11-18 08:08:00,41.0,37.1,29.38,WSW,246,5.8,5.8,86,0.00,,CLR,0.00,VWS V14.01,2013-11-18 14:08:00,
2013-11-18 08:09:00,41.0,37.1,29.38,WSW,254,6.3,6.3,86,0.00,,CLR,0.00,VWS V14.01,2013-11-18 14:09:00,
2013-11-18 08:12:00,41.2,37.3,29.38,WSW,252,5.4,6.3,86,0.00,,CLR,0.00,VWS V14.01,2013-11-18 14:12:00,
2013-11-18 08:13:00,41.4,37.5,29.38,West,276,4.9,4.9,86,0.00,,CLR,0.00,VWS V14.01,2013-11-18 14:13:00,
2013-11-18 08:14:00,41.4,37.5,29.38,West,271,5.8,5.8,86,0.00,,CLR,0.00,VWS V14.01,2013-11-18 14:14:00,
2013-11-18 08:15:00,41.4,36.9,29.38,WSW,254,5.8,5.8,84,0.00,,CLR,0.00,VWS V14.01,2013-11-18 14:15:00,
2013-11-18 08:19:00,41.7,37.2,29.38,West,280,6.3,8.1,84,0.00,,CLR,0.00,VWS V14.01,2013-11-18 14:19:00,
2013-11-18 08:20:00,41.5,36.5,29.38,West,266,3.6,5.8,82,0.00,,CLR,0.00,VWS V14.01,2013-11-18 14:20:00,
2013-11-18 08:21:00,41.7,36.6,29.38,WSW,243,5.8,6.3,82,0.00,,CLR,0.00,VWS V14.01,2013-11-18 14:21:00,
2013-11-18 08:24:00,41.7,36.6,29.38,West,278,5.8,6.3,82,0.00,,CLR,0.00,VWS V14.01,2013-11-18 14:24:00,
2013-11-18 08:25:00,41.9,36.2,29.41,West,275,3.6,6.3,80,0.00,,CLR,0.00,VWS V14.01,2013-11-18 14:25:00,
2013-11-18 08:26:00,41.9,36.2,29.41,WSW,253,5.8,5.8,80,0.00,,CLR,0.00,VWS V14.01,2013-11-18 14:26:00,
2013-11-18 08:27:00,41.7,36.0,29.41,West,259,4.9,6.3,80,0.00,,CLR,0.00,VWS V14.01,2013-11-18 14:27:00,
2013-11-18 08:30:00,41.9,35.5,29.41,WNW,292,5.8,6.7,78,0.00,,CLR,0.00,VWS V14.01,2013-11-18 14:30:00,
2013-11-18 08:31:00,41.7,35.4,29.41,West,273,5.8,5.8,78,0.00,,CLR,0.00,VWS V14.01,2013-11-18 14:31:00,
2013-11-18 08:33:00,41.9,35.5,29.41,West,270,5.8,6.3,78,0.00,,CLR,0.00,VWS V14.01,2013-11-18 14:33:00,
2013-11-18 08:35:00,41.7,34.7,29.41,WSW,250,6.3,8.1,76,0.00,,CLR,0.00,VWS V14.01,2013-11-18 14:35:00,
2013-11-18 08:36:00,41.9,34.9,29.41,WNW,284,5.4,6.7,76,0.00,,CLR,0.00,VWS V14.01,2013-11-18 14:36:00,
2013-11-18 08:39:00,42.1,34.4,29.41,West,280,5.4,6.3,74,0.00,,CLR,0.00,VWS V14.01,2013-11-18 14:39:00,
2013-11-18 08:40:00,41.9,33.5,29.41,West,277,5.4,6.3,72,0.00,,CLR,0.00,VWS V14.01,2013-11-18 14:40:00,
2013-11-18 08:41:00,41.9,32.1,29.41,West,263,7.6,7.6,68,0.00,,CLR,0.00,VWS V14.01,2013-11-18 14:41:00,
2013-11-18 08:42:00,41.9,32.1,29.41,WNW,284,5.8,10.1,68,0.00,,CLR,0.00,VWS V14.01,2013-11-18 14:42:00,
2013-11-18 08:46:00,42.3,31.7,29.41,WSW,258,5.8,7.6,66,0.00,,CLR,0.00,VWS V14.01,2013-11-18 14:46:00,
2013-11-18 08:47:00,42.1,31.6,29.41,West,275,5.8,5.8,66,0.00,,CLR,0.00,VWS V14.01,2013-11-18 14:47:00,
2013-11-18 08:48:00,42.3,31.7,29.41,West,272,5.4,5.8,66,0.00,,CLR,0.00,VWS V14.01,2013-11-18 14:48:00,
2013-11-18 08:51:00,42.3,30.2,29.41,WNW,303,6.3,6.3,62,0.00,,CLR,0.00,VWS V14.01,2013-11-18 14:51:00,
2013-11-18 08:52:00,42.3,29.4,29.41,NW,316,7.2,7.2,60,0.00,,CLR,0.00,VWS V14.01,2013-11-18 14:52:00,
2013-11-18 08:53:00,42.3,29.4,29.41,WNW,290,5.4,7.2,60,0.00,,CLR,0.00,VWS V14.01,2013-11-18 14:53:00,
2013-11-18 08:57:00,42.4,28.7,29.41,West,268,4.0,5.8,58,0.00,,CLR,0.00,VWS V14.01,2013-11-18 14:57:00,
2013-11-18 08:58:00,42.6,28.9,29.41,West,271,4.9,7.2,58,0.00,,CLR,0.00,VWS V14.01,2013-11-18 14:58:00,
2013-11-18 08:59:00,42.4,28.7,29.41,WNW,289,5.4,5.8,58,0.00,,CLR,0.00,VWS V14.01,2013-11-18 14:59:00,
2013-11-18 09:01:00,42.4,27.9,29.41,WNW,290,4.9,8.3,56,0.00,,CLR,0.00,VWS V14.01,2013-11-18 15:01:00,
2013-11-18 09:02:00,42.6,28.0,29.41,West,277,7.6,8.3,56,0.00,,CLR,0.00,VWS V14.01,2013-11-18 15:02:00,
2013-11-18 09:03:00,42.8,28.2,29.41,WNW,282,7.6,7.6,56,0.00,,CLR,0.00,VWS V14.01,2013-11-18 15:03:00,
2013-11-18 09:04:00,42.8,28.2,29.41,West,280,5.8,7.6,56,0.00,,CLR,0.00,VWS V14.01,2013-11-18 15:04:00,
2013-11-18 09:05:00,42.6,26.2,29.41,WNW,298,8.7,8.7,52,0.00,,CLR,0.00,VWS V14.01,2013-11-18 15:05:00,
2013-11-18 09:07:00,42.8,25.5,29.41,WNW,301,9.2,9.2,50,0.00,,CLR,0.00,VWS V14.01,2013-11-18 15:07:00,
2013-11-18 09:09:00,43.2,28.5,29.44,WNW,290,6.3,6.3,56,0.00,,CLR,0.00,VWS V14.01,2013-11-18 15:09:00,
2013-11-18 09:10:00,43.2,28.5,29.44,NW,314,5.4,6.3,56,0.00,,CLR,0.00,VWS V14.01,2013-11-18 15:10:00,
2013-11-18 09:12:00,43.0,25.6,29.44,WNW,296,6.3,8.3,50,0.00,,CLR,0.00,VWS V14.01,2013-11-18 15:12:00,
2013-11-18 09:13:00,43.0,23.6,29.44,West,281,3.6,8.7,46,0.00,,CLR,0.00,VWS V14.01,2013-11-18 15:13:00,
2013-11-18 09:15:00,43.3,26.0,29.44,WNW,282,5.8,7.6,50,0.00,,CLR,0.00,VWS V14.01,2013-11-18 15:15:00,
2013-11-18 09:17:00,43.5,26.1,29.44,West,279,7.2,8.1,50,0.00,,CLR,0.00,VWS V14.01,2013-11-18 15:17:00,
2013-11-18 09:19:00,43.7,26.3,29.44,NW,305,6.3,6.3,50,0.00,,CLR,0.00,VWS V14.01,2013-11-18 15:19:00,
2013-11-18 09:20:00,43.7,26.3,29.44,West,281,5.4,7.2,50,0.00,,CLR,0.00,VWS V14.01,2013-11-18 15:20:00,
2013-11-18 09:21:00,43.7,24.3,29.44,West,277,6.3,6.3,46,0.00,,CLR,0.00,VWS V14.01,2013-11-18 15:21:00,
2013-11-18 09:22:00,43.7,24.3,29.44,WNW,289,8.3,8.3,46,0.00,,CLR,0.00,VWS V14.01,2013-11-18 15:22:00,
2013-11-18 09:23:00,43.5,24.1,29.44,NW,316,6.3,8.3,46,0.00,,CLR,0.00,VWS V14.01,2013-11-18 15:23:00,
2013-11-18 09:25:00,43.7,24.3,29.44,NW,312,7.2,7.6,46,0.00,,CLR,0.00,VWS V14.01,2013-11-18 15:25:00,
2013-11-18 09:26:00,43.7,24.3,29.44,SW,224,8.3,8.3,46,0.00,,CLR,0.00,VWS V14.01,2013-11-18 15:26:00,
2013-11-18 09:27:00,43.7,24.3,29.44,West,274,6.7,8.1,46,0.00,,CLR,0.00,VWS V14.01,2013-11-18 15:27:00,
2013-11-18 09:28:00,43.9,21.1,29.44,WNW,283,6.7,8.3,40,0.00,,CLR,0.00,VWS V14.01,2013-11-18 15:28:00,
2013-11-18 09:30:00,43.9,24.5,29.44,WNW,282,6.3,9.6,46,0.00,,CLR,0.00,VWS V14.01,2013-11-18 15:30:00,
2013-11-18 09:31:00,43.9,21.1,29.44,NW,313,6.7,8.3,40,0.00,,CLR,0.00,VWS V14.01,2013-11-18 15:31:00,
2013-11-18 09:32:00,44.1,21.3,29.44,NW,315,8.3,8.3,40,0.00,,CLR,0.00,VWS V14.01,2013-11-18 15:32:00,
2013-11-18 09:33:00,44.2,24.8,29.44,WNW,296,7.6,10.5,46,0.00,,CLR,0.00,VWS V14.01,2013-11-18 15:33:00,
2013-11-18 09:35:00,44.2,21.5,29.44,West,281,8.1,8.7,40,0.00,,CLR,0.00,VWS V14.01,2013-11-18 15:35:00,
2013-11-18 09:36:00,44.1,21.3,29.44,NW,307,8.3,8.3,40,0.00,,CLR,0.00,VWS V14.01,2013-11-18 15:36:00,
2013-11-18 09:37:00,44.1,21.3,29.44,WNW,283,7.6,8.7,40,0.00,,CLR,0.00,VWS V14.01,2013-11-18 15:37:00,
2013-11-18 09:38:00,44.2,21.5,29.44,West,280,8.7,9.6,40,0.00,,CLR,0.00,VWS V14.01,2013-11-18 15:38:00,
2013-11-18 09:39:00,44.2,21.5,29.44,West,273,6.3,8.7,40,0.00,,CLR,0.00,VWS V14.01,2013-11-18 15:39:00,
2013-11-18 09:41:00,44.6,21.8,29.44,West,277,4.5,7.6,40,0.00,,CLR,0.00,VWS V14.01,2013-11-18 15:41:00,
2013-11-18 09:42:00,44.4,21.6,29.44,WNW,293,10.1,10.1,40,0.00,,CLR,0.00,VWS V14.01,2013-11-18 15:42:00,
2013-11-18 09:43:00,44.4,21.6,29.44,WNW,283,5.4,10.1,40,0.00,,CLR,0.00,VWS V14.01,2013-11-18 15:43:00,
2013-11-18 09:44:00,44.8,22.0,29.44,WNW,283,8.3,10.1,40,0.00,,CLR,0.00,VWS V14.01,2013-11-18 15:44:00,
2013-11-18 09:45:00,44.6,21.8,29.44,NW,308,8.1,9.2,40,0.00,,CLR,0.00,VWS V14.01,2013-11-18 15:45:00,
2013-11-18 09:47:00,44.6,21.8,29.44,NW,319,5.8,10.1,40,0.00,,CLR,0.00,VWS V14.01,2013-11-18 15:47:00,
2013-11-18 09:48:00,44.8,22.0,29.44,NW,311,7.6,8.3,40,0.00,,CLR,0.00,VWS V14.01,2013-11-18 15:48:00,
2013-11-18 09:49:00,44.8,22.0,29.44,WNW,298,12.8,12.8,40,0.00,,CLR,0.00,VWS V14.01,2013-11-18 15:49:00,
2013-11-18 09:51:00,45.0,22.1,29.44,WNW,302,7.6,10.1,40,0.00,,CLR,0.00,VWS V14.01,2013-11-18 15:51:00,
2013-11-18 09:53:00,45.1,22.3,29.44,NW,316,6.3,9.6,40,0.00,,CLR,0.00,VWS V14.01,2013-11-18 15:53:00,
2013-11-18 09:54:00,45.3,22.4,29.44,West,265,5.8,7.6,40,0.00,,CLR,0.00,VWS V14.01,2013-11-18 15:54:00,
2013-11-18 09:56:00,45.3,22.4,29.47,WNW,298,10.1,10.1,40,0.00,,CLR,0.00,VWS V14.01,2013-11-18 15:56:00,
2013-11-18 09:59:00,45.3,22.4,29.47,WNW,289,7.6,8.3,40,0.00,,CLR,0.00,VWS V14.01,2013-11-18 15:59:00,
2013-11-18 10:01:00,45.3,22.4,29.47,West,264,10.1,10.1,40,0.00,,CLR,0.00,VWS V14.01,2013-11-18 16:01:00,
2013-11-18 10:02:00,45.5,22.6,29.47,WNW,296,8.1,8.3,40,0.00,,CLR,0.00,VWS V14.01,2013-11-18 16:02:00,
2013-11-18 10:04:00,45.5,22.6,29.47,WNW,294,8.1,8.3,40,0.00,,CLR,0.00,VWS V14.01,2013-11-18 16:04:00,
2013-11-18 10:05:00,45.7,22.8,29.47,NW,304,8.1,8.1,40,0.00,,CLR,0.00,VWS V14.01,2013-11-18 16:05:00,
2013-11-18 10:06:00,45.5,22.6,29.47,NW,312,9.6,9.6,40,0.00,,CLR,0.00,VWS V14.01,2013-11-18 16:06:00,
2013-11-18 10:08:00,45.3,22.4,29.47,NW,315,12.3,12.8,40,0.00,,CLR,0.00,VWS V14.01,2013-11-18 16:08:00,
2013-11-18 10:09:00,45.7,22.8,29.47,NW,325,8.1,11.0,40,0.00,,CLR,0.00,VWS V14.01,2013-11-18 16:09:00,
2013-11-18 10:10:00,45.5,22.6,29.47,WNW,292,10.1,10.1,40,0.00,,CLR,0.00,VWS V14.01,2013-11-18 16:10:00,
2013-11-18 10:12:00,45.7,22.8,29.47,NW,306,8.1,9.6,40,0.00,,CLR,0.00,VWS V14.01,2013-11-18 16:12:00,
2013-11-18 10:13:00,45.7,22.8,29.47,WNW,301,8.3,8.3,40,0.00,,CLR,0.00,VWS V14.01,2013-11-18 16:13:00,
2013-11-18 10:14:00,45.9,22.9,29.47,West,278,8.1,8.7,40,0.00,,CLR,0.00,VWS V14.01,2013-11-18 16:14:00,
2013-11-18 10:16:00,45.9,22.9,29.47,WNW,300,8.3,9.2,40,0.00,,CLR,0.00,VWS V14.01,2013-11-18 16:16:00,
2013-11-18 10:17:00,46.0,23.1,29.47,NW,307,7.6,8.3,40,0.00,,CLR,0.00,VWS V14.01,2013-11-18 16:17:00,
2013-11-18 10:18:00,46.0,23.1,29.47,WNW,291,9.2,11.0,40,0.00,,CLR,0.00,VWS V14.01,2013-11-18 16:18:00,
2013-11-18 10:21:00,46.2,23.2,29.47,West,274,7.6,8.7,40,0.00,,CLR,0.00,VWS V14.01,2013-11-18 16:21:00,
2013-11-18 10:22:00,46.2,23.2,29.47,NW,306,7.6,7.6,40,0.00,,CLR,0.00,VWS V14.01,2013-11-18 16:22:00,
2013-11-18 10:23:00,46.4,22.2,29.47,NW,319,7.6,7.6,38,0.00,,CLR,0.00,VWS V14.01,2013-11-18 16:23:00,
2013-11-18 10:26:00,46.4,22.2,29.47,NW,305,8.1,8.7,38,0.00,,CLR,0.00,VWS V14.01,2013-11-18 16:26:00,
2013-11-18 10:27:00,46.6,22.4,29.47,West,274,8.1,11.0,38,0.00,,CLR,0.00,VWS V14.01,2013-11-18 16:27:00,
2013-11-18 10:28:00,46.6,22.4,29.47,West,279,5.4,10.5,38,0.00,,CLR,0.00,VWS V14.01,2013-11-18 16:28:00,
2013-11-18 10:31:00,46.2,23.2,29.47,NW,319,7.6,11.0,40,0.00,,CLR,0.00,VWS V14.01,2013-11-18 16:31:00,
2013-11-18 10:32:00,46.2,23.2,29.47,WNW,288,8.3,10.5,40,0.00,,CLR,0.00,VWS V14.01,2013-11-18 16:32:00,
2013-11-18 10:33:00,46.4,22.2,29.47,NW,316,6.3,10.1,38,0.00,,CLR,0.00,VWS V14.01,2013-11-18 16:33:00,
2013-11-18 10:34:00,46.4,22.2,29.47,NW,312,10.5,10.5,38,0.00,,CLR,0.00,VWS V14.01,2013-11-18 16:34:00,
2013-11-18 10:35:00,46.4,22.2,29.47,WNW,298,9.6,9.6,38,0.00,,CLR,0.00,VWS V14.01,2013-11-18 16:35:00,
2013-11-18 10:37:00,46.6,22.4,29.47,West,281,4.9,8.1,38,0.00,,CLR,0.00,VWS V14.01,2013-11-18 16:37:00,
2013-11-18 10:38:00,46.8,22.5,29.47,WNW,285,7.2,8.7,38,0.00,,CLR,0.00,VWS V14.01,2013-11-18 16:38:00,
2013-11-18 10:39:00,46.8,22.5,29.47,NW,305,6.3,11.0,38,0.00,,CLR,0.00,VWS V14.01,2013-11-18 16:39:00,
2013-11-18 10:40:00,46.8,22.5,29.47,West,262,8.3,8.7,38,0.00,,CLR,0.00,VWS V14.01,2013-11-18 16:40:00,
2013-11-18 10:42:00,46.9,22.7,29.47,West,275,7.6,10.5,38,0.00,,CLR,0.00,VWS V14.01,2013-11-18 16:42:00,
2013-11-18 10:43:00,47.1,22.8,29.47,NW,315,8.7,10.5,38,0.00,,CLR,0.00,VWS V14.01,2013-11-18 16:43:00,
2013-11-18 10:44:00,47.1,22.8,29.47,NW,319,6.3,8.3,38,0.00,,CLR,0.00,VWS V14.01,2013-11-18 16:44:00,
2013-11-18 10:46:00,47.3,23.0,29.47,West,265,8.1,8.1,38,0.00,,CLR,0.00,VWS V14.01,2013-11-18 16:46:00,
2013-11-18 10:47:00,47.3,23.0,29.47,WNW,296,7.6,8.7,38,0.00,,CLR,0.00,VWS V14.01,2013-11-18 16:47:00,
2013-11-18 10:48:00,47.3,23.0,29.47,NW,320,10.5,10.5,38,0.00,,CLR,0.00,VWS V14.01,2013-11-18 16:48:00,
2013-11-18 10:49:00,47.3,23.0,29.47,NW,314,7.6,8.7,38,0.00,,CLR,0.00,VWS V14.01,2013-11-18 16:49:00,
2013-11-18 10:50:00,47.3,23.0,29.47,WNW,289,5.8,7.6,38,0.00,,CLR,0.00,VWS V14.01,2013-11-18 16:50:00,
2013-11-18 10:53:00,47.5,23.2,29.47,NW,314,12.3,12.8,38,0.00,,CLR,0.00,VWS V14.01,2013-11-18 16:53:00,
2013-11-18 10:54:00,47.5,23.2,29.47,NW,316,8.3,10.5,38,0.00,,CLR,0.00,VWS V14.01,2013-11-18 16:54:00,
2013-11-18 10:55:00,47.5,23.2,29.47,WNW,293,8.7,12.3,38,0.00,,CLR,0.00,VWS V14.01,2013-11-18 16:55:00,
2013-11-18 10:59:00,47.8,23.5,29.47,WNW,285,5.8,8.7,38,0.00,,CLR,0.00,VWS V14.01,2013-11-18 16:59:00,
2013-11-18 11:00:00,47.8,23.5,29.47,NW,322,8.7,8.7,38,0.00,,CLR,0.00,VWS V14.01,2013-11-18 17:00:00,
2013-11-18 11:02:00,47.8,23.5,29.47,WNW,289,6.3,11.0,38,0.00,,CLR,0.00,VWS V14.01,2013-11-18 17:02:00,
2013-11-18 11:04:00,48.2,23.8,29.47,West,262,6.3,6.3,38,0.00,,CLR,0.00,VWS V14.01,2013-11-18 17:04:00,
2013-11-18 11:05:00,48.0,23.6,29.47,WNW,288,7.6,8.1,38,0.00,,CLR,0.00,VWS V14.01,2013-11-18 17:05:00,
2013-11-18 11:09:00,48.4,24.0,29.47,West,268,6.3,11.0,38,0.00,,CLR,0.00,VWS V14.01,2013-11-18 17:09:00,
2013-11-18 11:10:00,48.4,24.0,29.47,NW,323,7.2,12.3,38,0.00,,CLR,0.00,VWS V14.01,2013-11-18 17:10:00,
2013-11-18 11:11:00,48.6,24.1,29.47,NW,304,6.3,8.7,38,0.00,,CLR,0.00,VWS V14.01,2013-11-18 17:11:00,
2013-11-18 11:12:00,48.6,24.1,29.47,WSW,252,10.1,10.1,38,0.00,,CLR,0.00,VWS V14.01,2013-11-18 17:12:00,
2013-11-18 11:14:00,48.7,24.3,29.47,NW,326,12.3,12.3,38,0.00,,CLR,0.00,VWS V14.01,2013-11-18 17:14:00,
2013-11-18 11:15:00,48.6,24.1,29.47,WNW,301,8.3,8.3,38,0.00,,CLR,0.00,VWS V14.01,2013-11-18 17:15:00,
2013-11-18 11:16:00,48.6,24.1,29.47,West,275,8.3,11.0,38,0.00,,CLR,0.00,VWS V14.01,2013-11-18 17:16:00,
2013-11-18 11:17:00,48.6,24.1,29.47,West,275,9.6,9.6,38,0.00,,CLR,0.00,VWS V14.01,2013-11-18 17:17:00,
2013-11-18 11:21:00,48.9,24.5,29.47,West,267,8.3,8.3,38,0.00,,CLR,0.00,VWS V14.01,2013-11-18 17:21:00,
2013-11-18 11:22:00,49.1,24.6,29.47,WNW,288,8.1,8.1,38,0.00,,CLR,0.00,VWS V14.01,2013-11-18 17:22:00,
2013-11-18 11:23:00,49.1,24.6,29.47,WNW,295,8.3,10.5,38,0.00,,CLR,0.00,VWS V14.01,2013-11-18 17:23:00,
2013-11-18 11:26:00,49.3,24.8,29.47,WNW,303,11.0,11.0,38,0.00,,CLR,0.00,VWS V14.01,2013-11-18 17:26:00,
2013-11-18 11:28:00,49.1,24.6,29.47,WNW,294,8.1,10.5,38,0.00,,CLR,0.00,VWS V14.01,2013-11-18 17:28:00,
2013-11-18 11:30:00,49.3,24.8,29.47,NW,310,10.1,13.2,38,0.00,,CLR,0.00,VWS V14.01,2013-11-18 17:30:00,
2013-11-18 11:31:00,49.1,24.6,29.47,WNW,302,12.8,14.1,38,0.00,,CLR,0.00,VWS V14.01,2013-11-18 17:31:00,
2013-11-18 11:32:00,49.1,24.6,29.47,NW,312,13.2,13.2,38,0.00,,CLR,0.00,VWS V14.01,2013-11-18 17:32:00,
2013-11-18 11:33:00,49.1,24.6,29.47,NW,308,13.2,13.2,38,0.00,,CLR,0.00,VWS V14.01,2013-11-18 17:33:00,
2013-11-18 11:34:00,49.3,24.8,29.47,NW,323,10.5,11.9,38,0.00,,CLR,0.00,VWS V14.01,2013-11-18 17:34:00,
2013-11-18 11:36:00,49.6,25.1,29.47,West,259,9.6,9.6,38,0.00,,CLR,0.00,VWS V14.01,2013-11-18 17:36:00,
2013-11-18 11:37:00,49.5,24.9,29.47,NW,313,11.0,12.3,38,0.00,,CLR,0.00,VWS V14.01,2013-11-18 17:37:00,
2013-11-18 11:38:00,49.5,24.9,29.47,WNW,283,8.7,13.2,38,0.00,,CLR,0.00,VWS V14.01,2013-11-18 17:38:00,
2013-11-18 11:39:00,49.5,24.9,29.47,WNW,291,5.8,7.6,38,0.00,,CLR,0.00,VWS V14.01,2013-11-18 17:39:00,
2013-11-18 11:41:00,49.5,24.9,29.47,West,277,8.3,10.5,38,0.00,,CLR,0.00,VWS V14.01,2013-11-18 17:41:00,
2013-11-18 11:42:00,49.5,24.9,29.47,WNW,301,8.3,8.3,38,0.00,,CLR,0.00,VWS V14.01,2013-11-18 17:42:00,
2013-11-18 11:43:00,49.5,24.9,29.47,NW,316,6.7,6.7,38,0.00,,CLR,0.00,VWS V14.01,2013-11-18 17:43:00,
2013-11-18 11:44:00,49.5,24.9,29.47,NW,307,5.4,8.7,38,0.00,,CLR,0.00,VWS V14.01,2013-11-18 17:44:00,
2013-11-18 11:45:00,49.5,24.9,29.47,NW,306,8.1,8.3,38,0.00,,CLR,0.00,VWS V14.01,2013-11-18 17:45:00,
2013-11-18 11:47:00,49.8,25.2,29.47,WNW,292,8.7,10.1,38,0.00,,CLR,0.00,VWS V14.01,2013-11-18 17:47:00,
2013-11-18 11:48:00,50.0,25.4,29.47,WNW,299,6.3,10.1,38,0.00,,CLR,0.00,VWS V14.01,2013-11-18 17:48:00,
2013-11-18 11:49:00,49.8,25.2,29.47,NW,318,10.1,11.0,38,0.00,,CLR,0.00,VWS V14.01,2013-11-18 17:49:00,
2013-11-18 11:50:00,49.6,25.1,29.47,WNW,294,10.5,13.2,38,0.00,,CLR,0.00,VWS V14.01,2013-11-18 17:50:00,
2013-11-18 11:52:00,49.8,25.2,29.47,WNW,295,8.1,11.4,38,0.00,,CLR,0.00,VWS V14.01,2013-11-18 17:52:00,
2013-11-18 11:53:00,49.8,25.2,29.47,WNW,302,7.6,10.1,38,0.00,,CLR,0.00,VWS V14.01,2013-11-18 17:53:00,
2013-11-18 11:54:00,49.8,25.2,29.47,NW,304,10.5,13.2,38,0.00,,CLR,0.00,VWS V14.01,2013-11-18 17:54:00,
2013-11-18 11:55:00,49.8,25.2,29.47,NNW,328,13.2,13.2,38,0.00,,CLR,0.00,VWS V14.01,2013-11-18 17:55:00,
2013-11-18 11:57:00,50.0,25.4,29.47,West,275,8.3,8.3,38,0.00,,CLR,0.00,VWS V14.01,2013-11-18 17:57:00,
2013-11-18 11:58:00,50.0,25.4,29.47,NW,308,8.3,10.1,38,0.00,,CLR,0.00,VWS V14.01,2013-11-18 17:58:00,
2013-11-18 11:59:00,50.2,25.6,29.47,NW,306,8.3,10.5,38,0.00,,CLR,0.00,VWS V14.01,2013-11-18 17:59:00,
2013-11-18 12:00:00,50.2,25.6,29.47,WNW,292,8.7,10.5,38,0.00,,CLR,0.00,VWS V14.01,2013-11-18 18:00:00,
2013-11-18 12:01:00,50.2,25.6,29.47,WNW,302,7.2,8.7,38,0.00,,CLR,0.00,VWS V14.01,2013-11-18 18:01:00,
2013-11-18 12:02:00,50.2,25.6,29.47,West,264,7.6,7.6,38,0.00,,CLR,0.00,VWS V14.01,2013-11-18 18:02:00,
2013-11-18 12:05:00,50.4,25.7,29.47,NW,305,5.8,5.8,38,0.00,,CLR,0.00,VWS V14.01,2013-11-18 18:05:00,
2013-11-18 12:06:00,50.4,25.7,29.47,WNW,297,8.1,8.1,38,0.00,,CLR,0.00,VWS V14.01,2013-11-18 18:06:00,
2013-11-18 12:07:00,50.4,25.7,29.47,NW,321,8.3,10.1,38,0.00,,CLR,0.00,VWS V14.01,2013-11-18 18:07:00,
2013-11-18 12:08:00,50.4,25.7,29.47,WNW,297,8.7,10.1,38,0.00,,CLR,0.00,VWS V14.01,2013-11-18 18:08:00,
2013-11-18 12:10:00,50.5,25.9,29.44,NW,315,2.7,6.3,38,0.00,,CLR,0.00,VWS V14.01,2013-11-18 18:10:00,
2013-11-18 12:11:00,50.5,25.9,29.44,WNW,287,8.1,8.1,38,0.00,,CLR,0.00,VWS V14.01,2013-11-18 18:11:00,
2013-11-18 12:12:00,50.5,25.9,29.44,WNW,296,8.7,8.7,38,0.00,,CLR,0.00,VWS V14.01,2013-11-18 18:12:00,
2013-11-18 12:13:00,50.9,26.2,29.44,WNW,300,7.6,10.1,38,0.00,,CLR,0.00,VWS V14.01,2013-11-18 18:13:00,
2013-11-18 12:16:00,51.1,26.4,29.44,WNW,293,8.7,8.7,38,0.00,,CLR,0.00,VWS V14.01,2013-11-18 18:16:00,
2013-11-18 12:17:00,51.1,26.4,29.44,WNW,289,4.0,6.3,38,0.00,,CLR,0.00,VWS V14.01,2013-11-18 18:17:00,
2013-11-18 12:18:00,51.1,26.4,29.44,NNW,329,7.6,9.6,38,0.00,,CLR,0.00,VWS V14.01,2013-11-18 18:18:00,
2013-11-18 12:22:00,51.6,26.9,29.44,NW,326,10.1,10.1,38,0.00,,CLR,0.00,VWS V14.01,2013-11-18 18:22:00,
2013-11-18 12:23:00,51.6,26.9,29.44,West,266,10.5,10.5,38,0.00,,CLR,0.00,VWS V14.01,2013-11-18 18:23:00,
2013-11-18 12:24:00,51.6,26.9,29.44,West,281,12.3,12.3,38,0.00,,CLR,0.00,VWS V14.01,2013-11-18 18:24:00,
2013-11-18 12:25:00,51.6,26.9,29.44,WNW,286,5.4,8.1,38,0.00,,CLR,0.00,VWS V14.01,2013-11-18 18:25:00,
2013-11-18 12:27:00,51.8,25.7,29.44,West,273,10.5,10.5,36,0.00,,CLR,0.00,VWS V14.01,2013-11-18 18:27:00,
2013-11-18 12:28:00,51.6,26.9,29.44,WSW,257,8.3,10.5,38,0.00,,CLR,0.00,VWS V14.01,2013-11-18 18:28:00,
2013-11-18 12:29:00,51.6,26.9,29.44,NW,313,8.7,8.7,38,0.00,,CLR,0.00,VWS V14.01,2013-11-18 18:29:00,
2013-11-18 12:31:00,51.4,26.7,29.44,NW,307,7.6,10.5,38,0.00,,CLR,0.00,VWS V14.01,2013-11-18 18:31:00,
2013-11-18 12:32:00,51.6,26.9,29.44,NW,308,8.3,10.1,38,0.00,,CLR,0.00,VWS V14.01,2013-11-18 18:32:00,
2013-11-18 12:33:00,51.8,25.7,29.44,NNW,327,10.5,10.5,36,0.00,,CLR,0.00,VWS V14.01,2013-11-18 18:33:00,
2013-11-18 12:34:00,52.0,25.9,29.44,NW,306,8.1,8.3,36,0.00,,CLR,0.00,VWS V14.01,2013-11-18 18:34:00,
2013-11-18 12:36:00,52.0,25.9,29.44,WNW,302,11.0,11.0,36,0.00,,CLR,0.00,VWS V14.01,2013-11-18 18:36:00,
2013-11-18 12:37:00,52.0,25.9,29.44,NW,311,7.6,11.0,36,0.00,,CLR,0.00,VWS V14.01,2013-11-18 18:37:00,
2013-11-18 12:38:00,52.2,26.0,29.44,NW,313,11.0,11.0,36,0.00,,CLR,0.00,VWS V14.01,2013-11-18 18:38:00,
2013-11-18 12:39:00,52.3,26.2,29.44,NW,313,9.6,10.5,36,0.00,,CLR,0.00,VWS V14.01,2013-11-18 18:39:00,
2013-11-18 12:40:00,52.2,26.0,29.44,WNW,300,11.0,11.0,36,0.00,,CLR,0.00,VWS V14.01,2013-11-18 18:40:00,
2013-11-18 12:42:00,52.3,26.2,29.44,West,279,6.3,12.3,36,0.00,,CLR,0.00,VWS V14.01,2013-11-18 18:42:00,
2013-11-18 12:43:00,52.7,26.5,29.44,West,265,6.3,6.3,36,0.00,,CLR,0.00,VWS V14.01,2013-11-18 18:43:00,
2013-11-18 12:44:00,52.7,26.5,29.44,WNW,287,10.5,10.5,36,0.00,,CLR,0.00,VWS V14.01,2013-11-18 18:44:00,
2013-11-18 12:45:00,52.7,26.5,29.44,NW,308,10.5,10.5,36,0.00,,CLR,0.00,VWS V14.01,2013-11-18 18:45:00,
2013-11-18 12:47:00,52.5,26.4,29.44,West,278,10.5,10.5,36,0.00,,CLR,0.00,VWS V14.01,2013-11-18 18:47:00,
2013-11-18 12:48:00,52.7,26.5,29.44,West,275,6.3,10.5,36,0.00,,CLR,0.00,VWS V14.01,2013-11-18 18:48:00,
2013-11-18 12:50:00,52.9,26.7,29.44,WNW,293,8.7,8.7,36,0.00,,CLR,0.00,VWS V14.01,2013-11-18 18:50:00,
2013-11-18 12:51:00,52.9,26.7,29.44,NW,315,8.7,8.7,36,0.00,,CLR,0.00,VWS V14.01,2013-11-18 18:51:00,
2013-11-18 12:53:00,52.7,26.5,29.44,NNW,335,15.0,15.0,36,0.00,,CLR,0.00,VWS V14.01,2013-11-18 18:53:00,
2013-11-18 12:54:00,52.7,26.5,29.44,NW,314,13.6,15.0,36,0.00,,CLR,0.00,VWS V14.01,2013-11-18 18:54:00,
2013-11-18 12:55:00,52.7,26.5,29.44,NNW,327,12.3,15.4,36,0.00,,CLR,0.00,VWS V14.01,2013-11-18 18:55:00,
2013-11-18 12:56:00,52.9,26.7,29.44,NW,313,11.0,13.2,36,0.00,,CLR,0.00,VWS V14.01,2013-11-18 18:56:00,
2013-11-18 12:57:00,52.9,26.7,29.44,NW,321,13.2,15.4,36,0.00,,CLR,0.00,VWS V14.01,2013-11-18 18:57:00,
2013-11-18 12:59:00,52.9,26.7,29.44,NNW,329,11.9,12.3,36,0.00,,CLR,0.00,VWS V14.01,2013-11-18 18:59:00,
2013-11-18 13:00:00,52.9,26.7,29.44,WNW,295,11.0,11.0,36,0.00,,CLR,0.00,VWS V14.01,2013-11-18 19:00:00,
2013-11-18 13:01:00,52.9,26.7,29.44,WNW,298,12.3,12.3,36,0.00,,CLR,0.00,VWS V14.01,2013-11-18 19:01:00,
2013-11-18 13:03:00,52.7,26.5,29.44,NW,310,10.5,10.5,36,0.00,,CLR,0.00,VWS V14.01,2013-11-18 19:03:00,
2013-11-18 13:04:00,52.7,26.5,29.44,NW,308,8.3,8.3,36,0.00,,CLR,0.00,VWS V14.01,2013-11-18 19:04:00,
2013-11-18 13:05:00,52.7,26.5,29.44,WNW,298,8.7,8.7,36,0.00,,CLR,0.00,VWS V14.01,2013-11-18 19:05:00,
2013-11-18 13:06:00,52.9,26.7,29.44,NW,326,6.3,8.3,36,0.00,,CLR,0.00,VWS V14.01,2013-11-18 19:06:00,
2013-11-18 13:08:00,53.1,26.8,29.44,NW,319,13.2,13.2,36,0.00,,CLR,0.00,VWS V14.01,2013-11-18 19:08:00,
2013-11-18 13:10:00,53.1,26.8,29.44,WNW,293,10.1,10.5,36,0.00,,CLR,0.00,VWS V14.01,2013-11-18 19:10:00,
2013-11-18 13:11:00,52.9,26.7,29.44,NW,305,11.0,13.2,36,0.00,,CLR,0.00,VWS V14.01,2013-11-18 19:11:00,
2013-11-18 13:14:00,52.9,26.7,29.44,WNW,284,8.1,8.3,36,0.00,,CLR,0.00,VWS V14.01,2013-11-18 19:14:00,
2013-11-18 13:15:00,53.1,26.8,29.44,NW,325,8.1,8.7,36,0.00,,CLR,0.00,VWS V14.01,2013-11-18 19:15:00,
2013-11-18 13:16:00,53.1,26.8,29.44,WNW,297,8.7,8.7,36,0.00,,CLR,0.00,VWS V14.01,2013-11-18 19:16:00,
2013-11-18 13:18:00,53.2,27.0,29.44,West,269,7.6,12.3,36,0.00,,CLR,0.00,VWS V14.01,2013-11-18 19:18:00,
2013-11-18 13:20:00,53.1,26.8,29.44,NW,313,13.2,13.2,36,0.00,,CLR,0.00,VWS V14.01,2013-11-18 19:20:00,
2013-11-18 13:21:00,52.9,26.7,29.44,NW,314,12.8,12.8,36,0.00,,CLR,0.00,VWS V14.01,2013-11-18 19:21:00,
2013-11-18 13:22:00,52.9,26.7,29.44,NW,320,9.2,12.8,36,0.00,,CLR,0.00,VWS V14.01,2013-11-18 19:22:00,
2013-11-18 13:23:00,52.9,26.7,29.44,NW,310,11.0,14.5,36,0.00,,CLR,0.00,VWS V14.01,2013-11-18 19:23:00,
2013-11-18 13:25:00,52.9,26.7,29.44,NW,326,12.8,12.8,36,0.00,,CLR,0.00,VWS V14.01,2013-11-18 19:25:00,
2013-11-18 13:26:00,53.1,26.8,29.44,NW,307,11.0,16.8,36,0.00,,CLR,0.00,VWS V14.01,2013-11-18 19:26:00,
2013-11-18 13:27:00,53.1,26.8,29.44,NW,310,8.7,11.0,36,0.00,,CLR,0.00,VWS V14.01,2013-11-18 19:27:00,
2013-11-18 13:29:00,53.1,26.8,29.44,NW,316,11.0,11.9,36,0.00,,CLR,0.00,VWS V14.01,2013-11-18 19:29:00,
2013-11-18 13:30:00,53.2,27.0,29.44,NNW,327,12.8,12.8,36,0.00,,CLR,0.00,VWS V14.01,2013-11-18 19:30:00,
2013-11-18 13:31:00,53.2,27.0,29.44,NW,320,11.0,14.5,36,0.00,,CLR,0.00,VWS V14.01,2013-11-18 19:31:00,
2013-11-18 13:32:00,53.4,27.1,29.44,NW,313,10.1,13.2,36,0.00,,CLR,0.00,VWS V14.01,2013-11-18 19:32:00,
2013-11-18 13:33:00,53.4,27.1,29.44,NW,310,12.8,12.8,36,0.00,,CLR,0.00,VWS V14.01,2013-11-18 19:33:00,
2013-11-18 13:35:00,53.2,27.0,29.44,NW,309,11.4,17.4,36,0.00,,CLR,0.00,VWS V14.01,2013-11-18 19:35:00,
2013-11-18 13:36:00,53.2,27.0,29.44,NW,319,10.1,13.2,36,0.00,,CLR,0.00,VWS V14.01,2013-11-18 19:36:00,
2013-11-18 13:37:00,53.2,27.0,29.44,NW,314,10.1,12.8,36,0.00,,CLR,0.00,VWS V14.01,2013-11-18 19:37:00,
2013-11-18 13:38:00,53.2,27.0,29.44,NW,308,11.0,11.0,36,0.00,,CLR,0.00,VWS V14.01,2013-11-18 19:38:00,
2013-11-18 13:39:00,53.2,27.0,29.44,NNW,331,13.2,13.2,36,0.00,,CLR,0.00,VWS V14.01,2013-11-18 19:39:00,
2013-11-18 13:40:00,53.2,27.0,29.44,WNW,300,10.5,13.2,36,0.00,,CLR,0.00,VWS V14.01,2013-11-18 19:40:00,
2013-11-18 13:41:00,53.4,27.1,29.44,NW,323,10.5,11.0,36,0.00,,CLR,0.00,VWS V14.01,2013-11-18 19:41:00,
2013-11-18 13:42:00,53.4,27.1,29.44,NW,316,15.4,15.4,36,0.00,,CLR,0.00,VWS V14.01,2013-11-18 19:42:00,
2013-11-18 13:44:00,53.2,27.0,29.44,WNW,303,14.1,17.0,36,0.00,,CLR,0.00,VWS V14.01,2013-11-18 19:44:00,
2013-11-18 13:45:00,53.2,27.0,29.44,WNW,302,12.8,16.8,36,0.00,,CLR,0.00,VWS V14.01,2013-11-18 19:45:00,
2013-11-18 13:46:00,53.1,26.8,29.44,NNW,329,16.8,16.8,36,0.00,,CLR,0.00,VWS V14.01,2013-11-18 19:46:00,
2013-11-18 13:47:00,53.1,26.8,29.44,NNW,335,15.0,16.8,36,0.00,,CLR,0.00,VWS V14.01,2013-11-18 19:47:00,
2013-11-18 13:48:00,53.1,26.8,29.44,NW,319,16.8,17.4,36,0.00,,CLR,0.00,VWS V14.01,2013-11-18 19:48:00,
2013-11-18 13:49:00,53.1,26.8,29.44,NW,307,15.4,17.4,36,0.00,,CLR,0.00,VWS V14.01,2013-11-18 19:49:00,
2013-11-18 13:50:00,53.1,26.8,29.44,NNW,340,17.0,17.0,36,0.00,,CLR,0.00,VWS V14.01,2013-11-18 19:50:00,
2013-11-18 13:51:00,53.1,26.8,29.44,NW,320,15.4,16.3,36,0.00,,CLR,0.00,VWS V14.01,2013-11-18 19:51:00,
2013-11-18 13:52:00,53.1,26.8,29.44,NW,326,16.8,16.8,36,0.00,,CLR,0.00,VWS V14.01,2013-11-18 19:52:00,
2013-11-18 13:54:00,53.1,26.8,29.44,NW,314,16.8,16.8,36,0.00,,CLR,0.00,VWS V14.01,2013-11-18 19:54:00,
2013-11-18 13:57:00,53.1,26.8,29.44,WNW,299,15.9,15.9,36,0.00,,CLR,0.00,VWS V14.01,2013-11-18 19:57:00,
2013-11-18 13:58:00,53.1,26.8,29.44,NW,311,11.0,13.2,36,0.00,,CLR,0.00,VWS V14.01,2013-11-18 19:58:00,
2013-11-18 14:00:00,53.1,26.8,29.44,NNW,344,12.3,13.2,36,0.00,,CLR,0.00,VWS V14.01,2013-11-18 20:00:00,
2013-11-18 14:02:00,53.4,27.1,29.44,NNW,329,10.5,12.8,36,0.00,,CLR,0.00,VWS V14.01,2013-11-18 20:02:00,
2013-11-18 14:03:00,53.4,27.1,29.44,NW,313,13.2,13.2,36,0.00,,CLR,0.00,VWS V14.01,2013-11-18 20:03:00,
2013-11-18 14:06:00,53.8,27.5,29.44,WNW,302,10.5,10.5,36,0.00,,CLR,0.00,VWS V14.01,2013-11-18 20:06:00,
2013-11-18 14:08:00,54.0,27.6,29.44,NW,319,8.1,10.1,36,0.00,,CLR,0.00,VWS V14.01,2013-11-18 20:08:00,
2013-11-18 14:09:00,54.0,27.6,29.44,NNW,335,13.2,13.2,36,0.00,,CLR,0.00,VWS V14.01,2013-11-18 20:09:00,
2013-11-18 14:10:00,54.0,27.6,29.44,NNW,327,13.2,13.2,36,0.00,,CLR,0.00,VWS V14.01,2013-11-18 20:10:00,
2013-11-18 14:12:00,54.1,27.8,29.44,West,272,7.6,12.3,36,0.00,,CLR,0.00,VWS V14.01,2013-11-18 20:12:00,
2013-11-18 14:13:00,54.1,27.8,29.44,NW,323,12.3,12.3,36,0.00,,CLR,0.00,VWS V14.01,2013-11-18 20:13:00,
2013-11-18 14:14:00,54.1,27.8,29.44,NW,315,11.0,12.3,36,0.00,,CLR,0.00,VWS V14.01,2013-11-18 20:14:00,
2013-11-18 14:15:00,54.0,27.6,29.44,NW,318,17.0,17.0,36,0.00,,CLR,0.00,VWS V14.01,2013-11-18 20:15:00,
2013-11-18 14:17:00,54.0,27.6,29.44,WNW,303,11.0,13.2,36,0.00,,CLR,0.00,VWS V14.01,2013-11-18 20:17:00,
2013-11-18 14:18:00,53.8,27.5,29.44,NW,326,12.8,12.8,36,0.00,,CLR,0.00,VWS V14.01,2013-11-18 20:18:00,
2013-11-18 14:19:00,53.6,27.3,29.44,NW,323,10.1,10.1,36,0.00,,CLR,0.00,VWS V14.01,2013-11-18 20:19:00,
2013-11-18 14:20:00,53.8,27.5,29.44,NW,324,11.0,11.0,36,0.00,,CLR,0.00,VWS V14.01,2013-11-18 20:20:00,
2013-11-18 14:23:00,54.0,27.6,29.44,NW,318,10.5,13.2,36,0.00,,CLR,0.00,VWS V14.01,2013-11-18 20:23:00,
2013-11-18 14:24:00,53.8,27.5,29.44,WNW,299,11.0,13.2,36,0.00,,CLR,0.00,VWS V14.01,2013-11-18 20:24:00,
2013-11-18 14:25:00,53.8,27.5,29.44,NW,326,8.1,8.7,36,0.00,,CLR,0.00,VWS V14.01,2013-11-18 20:25:00,
2013-11-18 14:28:00,53.8,27.5,29.44,WNW,291,10.5,13.2,36,0.00,,CLR,0.00,VWS V14.01,2013-11-18 20:28:00,
2013-11-18 14:29:00,53.6,27.3,29.44,WNW,284,13.2,13.2,36,0.00,,CLR,0.00,VWS V14.01,2013-11-18 20:29:00,
2013-11-18 14:30:00,53.6,27.3,29.44,WNW,293,11.4,13.2,36,0.00,,CLR,0.00,VWS V14.01,2013-11-18 20:30:00,
2013-11-18 14:31:00,53.4,27.1,29.44,NW,321,10.5,15.4,36,0.00,,CLR,0.00,VWS V14.01,2013-11-18 20:31:00,
2013-11-18 14:35:00,53.4,27.1,29.44,NW,316,11.0,11.0,36,0.00,,CLR,0.00,VWS V14.01,2013-11-18 20:35:00,
2013-11-18 14:36:00,53.2,27.0,29.44,NW,317,13.2,13.2,36,0.00,,CLR,0.00,VWS V14.01,2013-11-18 20:36:00,
2013-11-18 14:40:00,53.1,26.8,29.44,NW,324,13.2,13.2,36,0.00,,CLR,0.00,VWS V14.01,2013-11-18 20:40:00,
2013-11-18 14:41:00,53.1,26.8,29.44,NW,324,13.2,13.2,36,0.00,,CLR,0.00,VWS V14.01,2013-11-18 20:41:00,
2013-11-18 14:42:00,53.2,27.0,29.44,NNW,328,11.0,11.9,36,0.00,,CLR,0.00,VWS V14.01,2013-11-18 20:42:00,
2013-11-18 14:43:00,53.2,27.0,29.44,NW,306,10.5,11.4,36,0.00,,CLR,0.00,VWS V14.01,2013-11-18 20:43:00,
2013-11-18 14:46:00,53.4,27.1,29.44,NW,321,10.5,12.8,36,0.00,,CLR,0.00,VWS V14.01,2013-11-18 20:46:00,
2013-11-18 14:48:00,53.2,27.0,29.44,NW,325,11.0,12.8,36,0.00,,CLR,0.00,VWS V14.01,2013-11-18 20:48:00,
2013-11-18 14:50:00,53.2,27.0,29.44,NW,322,15.4,15.4,36,0.00,,CLR,0.00,VWS V14.01,2013-11-18 20:50:00,
2013-11-18 14:51:00,53.1,26.8,29.44,NW,313,13.2,15.0,36,0.00,,CLR,0.00,VWS V14.01,2013-11-18 20:51:00,
2013-11-18 14:52:00,53.1,26.8,29.44,NW,318,10.5,12.3,36,0.00,,CLR,0.00,VWS V14.01,2013-11-18 20:52:00,
2013-11-18 14:54:00,53.1,26.8,29.44,NNW,333,12.8,12.8,36,0.00,,CLR,0.00,VWS V14.01,2013-11-18 20:54:00,
2013-11-18 14:56:00,53.2,27.0,29.44,NW,320,10.1,11.0,36,0.00,,CLR,0.00,VWS V14.01,2013-11-18 20:56:00,
2013-11-18 14:57:00,53.2,27.0,29.44,NW,310,8.7,10.5,36,0.00,,CLR,0.00,VWS V14.01,2013-11-18 20:57:00,
2013-11-18 14:59:00,53.4,27.1,29.44,NW,310,8.1,8.1,36,0.00,,CLR,0.00,VWS V14.01,2013-11-18 20:59:00,
2013-11-18 15:00:00,53.4,27.1,29.44,NW,304,11.9,11.9,36,0.00,,CLR,0.00,VWS V14.01,2013-11-18 21:00:00,
2013-11-18 15:01:00,53.2,27.0,29.44,NW,314,10.1,10.1,36,0.00,,CLR,0.00,VWS V14.01,2013-11-18 21:01:00,
2013-11-18 15:02:00,53.2,27.0,29.44,NW,314,10.1,10.1,36,0.00,,CLR,0.00,VWS V14.01,2013-11-18 21:02:00,
2013-11-18 15:05:00,53.2,27.0,29.44,NNW,335,11.0,11.0,36,0.00,,CLR,0.00,VWS V14.01,2013-11-18 21:05:00,
2013-11-18 15:06:00,53.2,27.0,29.44,NW,313,10.5,10.5,36,0.00,,CLR,0.00,VWS V14.01,2013-11-18 21:06:00,
2013-11-18 15:07:00,53.2,27.0,29.44,NW,317,10.1,10.5,36,0.00,,CLR,0.00,VWS V14.01,2013-11-18 21:07:00,
2013-11-18 15:08:00,53.1,26.8,29.44,NW,315,8.3,12.8,36,0.00,,CLR,0.00,VWS V14.01,2013-11-18 21:08:00,
2013-11-18 15:09:00,53.2,27.0,29.44,NW,320,10.5,10.5,36,0.00,,CLR,0.00,VWS V14.01,2013-11-18 21:09:00,
2013-11-18 15:10:00,53.2,27.0,29.44,NW,323,12.8,13.2,36,0.00,,CLR,0.00,VWS V14.01,2013-11-18 21:10:00,
2013-11-18 15:13:00,53.1,26.8,29.44,NW,319,12.3,12.3,36,0.00,,CLR,0.00,VWS V14.01,2013-11-18 21:13:00,
2013-11-18 15:14:00,53.1,26.8,29.44,NNW,328,13.6,14.5,36,0.00,,CLR,0.00,VWS V14.01,2013-11-18 21:14:00,
2013-11-18 15:16:00,52.9,26.7,29.44,NW,310,12.8,14.1,36,0.00,,CLR,0.00,VWS V14.01,2013-11-18 21:16:00,
2013-11-18 15:18:00,52.9,26.7,29.44,NW,311,11.9,11.9,36,0.00,,CLR,0.00,VWS V14.01,2013-11-18 21:18:00,
2013-11-18 15:19:00,52.9,26.7,29.44,NW,319,10.5,11.9,36,0.00,,CLR,0.00,VWS V14.01,2013-11-18 21:19:00,
2013-11-18 15:21:00,52.9,26.7,29.44,WNW,290,10.5,10.5,36,0.00,,CLR,0.00,VWS V14.01,2013-11-18 21:21:00,
2013-11-18 15:24:00,52.9,26.7,29.44,NW,322,12.8,12.8,36,0.00,,CLR,0.00,VWS V14.01,2013-11-18 21:24:00,
2013-11-18 15:25:00,52.7,26.5,29.44,NW,315,12.8,12.8,36,0.00,,CLR,0.00,VWS V14.01,2013-11-18 21:25:00,
2013-11-18 15:26:00,52.7,26.5,29.44,WNW,302,8.1,13.2,36,0.00,,CLR,0.00,VWS V14.01,2013-11-18 21:26:00,
2013-11-18 15:27:00,52.7,26.5,29.44,NW,312,9.6,11.0,36,0.00,,CLR,0.00,VWS V14.01,2013-11-18 21:27:00,
2013-11-18 15:30:00,52.5,26.4,29.44,NW,313,10.5,10.5,36,0.00,,CLR,0.00,VWS V14.01,2013-11-18 21:30:00,
2013-11-18 15:31:00,52.3,26.2,29.44,NW,312,8.1,13.2,36,0.00,,CLR,0.00,VWS V14.01,2013-11-18 21:31:00,
2013-11-18 15:32:00,52.3,26.2,29.44,WNW,292,10.1,10.5,36,0.00,,CLR,0.00,VWS V14.01,2013-11-18 21:32:00,
2013-11-18 15:33:00,52.5,26.4,29.44,NW,315,10.5,10.5,36,0.00,,CLR,0.00,VWS V14.01,2013-11-18 21:33:00,
2013-11-18 15:35:00,52.3,26.2,29.44,NW,325,10.5,10.5,36,0.00,,CLR,0.00,VWS V14.01,2013-11-18 21:35:00,
2013-11-18 15:36:00,52.3,26.2,29.44,NW,320,10.5,11.0,36,0.00,,CLR,0.00,VWS V14.01,2013-11-18 21:36:00,
2013-11-18 15:38:00,52.3,26.2,29.44,NW,323,8.3,8.7,36,0.00,,CLR,0.00,VWS V14.01,2013-11-18 21:38:00,
2013-11-18 15:39:00,52.3,26.2,29.44,WNW,301,7.6,8.7,36,0.00,,CLR,0.00,VWS V14.01,2013-11-18 21:39:00,
2013-11-18 15:40:00,52.3,26.2,29.44,WNW,300,8.1,8.1,36,0.00,,CLR,0.00,VWS V14.01,2013-11-18 21:40:00,
2013-11-18 15:41:00,52.3,26.2,29.44,NW,315,8.3,8.3,36,0.00,,CLR,0.00,VWS V14.01,2013-11-18 21:41:00,
2013-11-18 15:43:00,52.2,26.0,29.44,NW,312,12.3,12.8,36,0.00,,CLR,0.00,VWS V14.01,2013-11-18 21:43:00,
2013-11-18 15:44:00,52.2,26.0,29.44,NW,317,8.3,12.8,36,0.00,,CLR,0.00,VWS V14.01,2013-11-18 21:44:00,
2013-11-18 15:45:00,52.2,26.0,29.44,WNW,302,10.1,10.5,36,0.00,,CLR,0.00,VWS V14.01,2013-11-18 21:45:00,
2013-11-18 15:46:00,52.2,26.0,29.44,NW,321,8.1,10.1,36,0.00,,CLR,0.00,VWS V14.01,2013-11-18 21:46:00,
2013-11-18 15:47:00,52.0,25.9,29.44,NW,319,8.1,10.1,36,0.00,,CLR,0.00,VWS V14.01,2013-11-18 21:47:00,
2013-11-18 15:48:00,52.0,25.9,29.44,NW,318,8.7,8.7,36,0.00,,CLR,0.00,VWS V14.01,2013-11-18 21:48:00,
2013-11-18 15:49:00,52.0,25.9,29.44,NNW,330,8.3,10.1,36,0.00,,CLR,0.00,VWS V14.01,2013-11-18 21:49:00,
2013-11-18 15:50:00,52.0,25.9,29.44,NW,321,7.6,8.3,36,0.00,,CLR,0.00,VWS V14.01,2013-11-18 21:50:00,
2013-11-18 15:52:00,51.8,25.7,29.44,NW,321,11.0,11.0,36,0.00,,CLR,0.00,VWS V14.01,2013-11-18 21:52:00,
2013-11-18 15:53:00,51.8,25.7,29.44,NW,321,10.1,10.1,36,0.00,,CLR,0.00,VWS V14.01,2013-11-18 21:53:00,
2013-11-18 15:54:00,51.8,25.7,29.47,NW,319,8.7,8.7,36,0.00,,CLR,0.00,VWS V14.01,2013-11-18 21:54:00,
2013-11-18 15:55:00,51.8,25.7,29.47,NW,319,6.3,8.7,36,0.00,,CLR,0.00,VWS V14.01,2013-11-18 21:55:00,
2013-11-18 15:58:00,51.6,26.9,29.47,NW,325,7.6,7.6,38,0.00,,CLR,0.00,VWS V14.01,2013-11-18 21:58:00,
2013-11-18 15:59:00,51.6,26.9,29.47,WNW,302,5.8,7.6,38,0.00,,CLR,0.00,VWS V14.01,2013-11-18 21:59:00,
2013-11-18 16:00:00,51.6,26.9,29.47,NW,311,10.1,10.1,38,0.00,,CLR,0.00,VWS V14.01,2013-11-18 22:00:00,
2013-11-18 16:03:00,51.4,26.7,29.47,WNW,303,7.6,8.7,38,0.00,,CLR,0.00,VWS V14.01,2013-11-18 22:03:00,
2013-11-18 16:04:00,51.4,26.7,29.47,WNW,302,6.3,8.1,38,0.00,,CLR,0.00,VWS V14.01,2013-11-18 22:04:00,
2013-11-18 16:05:00,51.4,26.7,29.47,NW,314,6.3,8.1,38,0.00,,CLR,0.00,VWS V14.01,2013-11-18 22:05:00,
2013-11-18 16:06:00,51.4,26.7,29.47,NW,318,5.4,8.1,38,0.00,,CLR,0.00,VWS V14.01,2013-11-18 22:06:00,
2013-11-18 16:07:00,51.3,26.5,29.47,NW,312,5.4,7.2,38,0.00,,CLR,0.00,VWS V14.01,2013-11-18 22:07:00,
2013-11-18 16:08:00,51.3,26.5,29.47,NW,307,6.3,6.3,38,0.00,,CLR,0.00,VWS V14.01,2013-11-18 22:08:00,
2013-11-18 16:09:00,51.1,26.4,29.47,NW,310,7.6,8.3,38,0.00,,CLR,0.00,VWS V14.01,2013-11-18 22:09:00,
2013-11-18 16:10:00,51.1,26.4,29.47,NW,315,6.3,7.2,38,0.00,,CLR,0.00,VWS V14.01,2013-11-18 22:10:00,
2013-11-18 16:11:00,51.1,26.4,29.47,NW,306,4.0,7.2,38,0.00,,CLR,0.00,VWS V14.01,2013-11-18 22:11:00,
2013-11-18 16:12:00,51.1,26.4,29.47,NW,305,6.3,6.3,38,0.00,,CLR,0.00,VWS V14.01,2013-11-18 22:12:00,
2013-11-18 16:13:00,50.7,26.0,29.47,NW,316,7.6,7.6,38,0.00,,CLR,0.00,VWS V14.01,2013-11-18 22:13:00,
2013-11-18 16:14:00,50.7,26.0,29.47,NW,316,7.6,7.6,38,0.00,,CLR,0.00,VWS V14.01,2013-11-18 22:14:00,
2013-11-18 16:15:00,50.7,26.0,29.47,NW,315,8.7,8.7,38,0.00,,CLR,0.00,VWS V14.01,2013-11-18 22:15:00,
2013-11-18 16:16:00,50.7,26.0,29.47,NW,313,8.3,8.7,38,0.00,,CLR,0.00,VWS V14.01,2013-11-18 22:16:00,
2013-11-18 16:17:00,50.5,25.9,29.47,NW,320,5.8,5.8,38,0.00,,CLR,0.00,VWS V14.01,2013-11-18 22:17:00,
2013-11-18 16:19:00,50.2,25.6,29.47,NW,320,10.1,10.1,38,0.00,,CLR,0.00,VWS V14.01,2013-11-18 22:19:00,
2013-11-18 16:21:00,50.2,25.6,29.47,NW,319,8.7,11.0,38,0.00,,CLR,0.00,VWS V14.01,2013-11-18 22:21:00,
2013-11-18 16:23:00,50.2,25.6,29.47,NW,319,6.3,8.7,38,0.00,,CLR,0.00,VWS V14.01,2013-11-18 22:23:00,
2013-11-18 16:24:00,50.2,25.6,29.47,NW,321,6.3,8.1,38,0.00,,CLR,0.00,VWS V14.01,2013-11-18 22:24:00,
2013-11-18 16:25:00,50.0,25.4,29.47,NW,323,6.7,7.6,38,0.00,,CLR,0.00,VWS V14.01,2013-11-18 22:25:00,
2013-11-18 16:26:00,49.8,25.2,29.47,NW,312,6.7,6.7,38,0.00,,CLR,0.00,VWS V14.01,2013-11-18 22:26:00,
2013-11-18 16:28:00,49.5,24.9,29.47,NW,317,8.1,8.1,38,0.00,,CLR,0.00,VWS V14.01,2013-11-18 22:28:00,
2013-11-18 16:29:00,49.5,24.9,29.47,NW,317,8.3,10.1,38,0.00,,CLR,0.00,VWS V14.01,2013-11-18 22:29:00,
2013-11-18 16:30:00,49.5,24.9,29.47,NW,312,8.1,8.3,38,0.00,,CLR,0.00,VWS V14.01,2013-11-18 22:30:00,
2013-11-18 16:32:00,49.3,24.8,29.47,NW,315,8.1,8.1,38,0.00,,CLR,0.00,VWS V14.01,2013-11-18 22:32:00,
2013-11-18 16:34:00,49.1,24.6,29.47,NW,316,5.8,7.6,38,0.00,,CLR,0.00,VWS V14.01,2013-11-18 22:34:00,
2013-11-18 16:35:00,48.9,24.5,29.47,NW,319,6.3,6.3,38,0.00,,CLR,0.00,VWS V14.01,2013-11-18 22:35:00,
2013-11-18 16:36:00,48.9,24.5,29.47,NW,323,6.3,6.3,38,0.00,,CLR,0.00,VWS V14.01,2013-11-18 22:36:00,
2013-11-18 16:37:00,48.7,24.3,29.47,WNW,302,8.1,8.3,38,0.00,,CLR,0.00,VWS V14.01,2013-11-18 22:37:00,
2013-11-18 16:38:00,48.6,24.1,29.47,NNW,329,7.6,8.3,38,0.00,,CLR,0.00,VWS V14.01,2013-11-18 22:38:00,
2013-11-18 16:39:00,48.6,24.1,29.47,NW,316,6.3,7.6,38,0.00,,CLR,0.00,VWS V14.01,2013-11-18 22:39:00,
2013-11-18 16:40:00,48.6,24.1,29.47,NW,313,6.3,6.3,38,0.00,,CLR,0.00,VWS V14.01,2013-11-18 22:40:00,
2013-11-18 16:41:00,48.4,24.0,29.47,NW,315,5.4,6.3,38,0.00,,CLR,0.00,VWS V14.01,2013-11-18 22:41:00,
2013-11-18 16:43:00,48.0,23.6,29.47,NW,308,4.9,6.3,38,0.00,,CLR,0.00,VWS V14.01,2013-11-18 22:43:00,
2013-11-18 16:45:00,47.5,23.2,29.47,NW,316,5.8,6.3,38,0.00,,CLR,0.00,VWS V14.01,2013-11-18 22:45:00,
2013-11-18 16:47:00,47.3,23.0,29.47,NW,316,4.9,5.8,38,0.00,,CLR,0.00,VWS V14.01,2013-11-18 22:47:00,
2013-11-18 16:48:00,47.1,22.8,29.47,NW,315,4.9,5.4,38,0.00,,CLR,0.00,VWS V14.01,2013-11-18 22:48:00,
2013-11-18 16:49:00,46.9,22.7,29.47,NW,316,5.8,5.8,38,0.00,,CLR,0.00,VWS V14.01,2013-11-18 22:49:00,
2013-11-18 16:50:00,46.8,22.5,29.47,NW,321,4.9,5.4,38,0.00,,CLR,0.00,VWS V14.01,2013-11-18 22:50:00,
2013-11-18 16:52:00,46.4,22.2,29.47,NW,326,4.9,6.3,38,0.00,,CLR,0.00,VWS V14.01,2013-11-18 22:52:00,
2013-11-18 16:54:00,46.0,23.1,29.47,NW,326,5.4,5.4,40,0.00,,CLR,0.00,VWS V14.01,2013-11-18 22:54:00,
2013-11-18 16:55:00,45.9,22.9,29.47,NW,326,5.4,6.3,40,0.00,,CLR,0.00,VWS V14.01,2013-11-18 22:55:00,
2013-11-18 16:57:00,45.7,22.8,29.47,NNW,333,6.3,6.7,40,0.00,,CLR,0.00,VWS V14.01,2013-11-18 22:57:00,
2013-11-18 16:58:00,45.7,22.8,29.47,NNW,339,5.4,6.7,40,0.00,,CLR,0.00,VWS V14.01,2013-11-18 22:58:00,
2013-11-18 16:59:00,45.5,22.6,29.47,NNW,329,5.8,6.3,40,0.00,,CLR,0.00,VWS V14.01,2013-11-18 22:59:00,
2013-11-18 17:01:00,45.3,22.4,29.47,NNW,327,5.8,5.8,40,0.00,,CLR,0.00,VWS V14.01,2013-11-18 23:01:00,
2013-11-18 17:02:00,45.3,22.4,29.47,NW,315,5.8,5.8,40,0.00,,CLR,0.00,VWS V14.01,2013-11-18 23:02:00,
2013-11-18 17:03:00,45.3,22.4,29.47,NW,316,4.9,5.8,40,0.00,,CLR,0.00,VWS V14.01,2013-11-18 23:03:00,
2013-11-18 17:05:00,45.0,22.1,29.47,NNW,332,5.8,6.3,40,0.00,,CLR,0.00,VWS V14.01,2013-11-18 23:05:00,
2013-11-18 17:06:00,44.8,22.0,29.47,NNW,333,5.4,5.8,40,0.00,,CLR,0.00,VWS V14.01,2013-11-18 23:06:00,
2013-11-18 17:07:00,44.6,21.8,29.47,NNW,327,6.7,7.2,40,0.00,,CLR,0.00,VWS V14.01,2013-11-18 23:07:00,
2013-11-18 17:08:00,44.6,21.8,29.47,NNW,331,6.3,6.7,40,0.00,,CLR,0.00,VWS V14.01,2013-11-18 23:08:00,
2013-11-18 17:10:00,44.6,21.8,29.47,NNW,335,5.8,5.8,40,0.00,,CLR,0.00,VWS V14.01,2013-11-18 23:10:00,
2013-11-18 17:11:00,44.6,21.8,29.47,NNW,341,5.8,5.8,40,0.00,,CLR,0.00,VWS V14.01,2013-11-18 23:11:00,
2013-11-18 17:13:00,44.4,21.6,29.47,NNW,334,5.8,5.8,40,0.00,,CLR,0.00,VWS V14.01,2013-11-18 23:13:00,
2013-11-18 17:15:00,44.1,21.3,29.47,NNW,330,4.9,4.9,40,0.00,,CLR,0.00,VWS V14.01,2013-11-18 23:15:00,
2013-11-18 17:16:00,44.1,21.3,29.47,NNW,337,5.4,5.4,40,0.00,,CLR,0.00,VWS V14.01,2013-11-18 23:16:00,
2013-11-18 17:18:00,44.1,21.3,29.47,NNW,348,5.8,5.8,40,0.00,,CLR,0.00,VWS V14.01,2013-11-18 23:18:00,
2013-11-18 17:19:00,44.1,21.3,29.47,NNW,341,5.8,5.8,40,0.00,,CLR,0.00,VWS V14.01,2013-11-18 23:19:00,
2013-11-18 17:20:00,44.1,21.3,29.47,NNW,337,5.8,6.3,40,0.00,,CLR,0.00,VWS V14.01,2013-11-18 23:20:00,
2013-11-18 17:21:00,44.1,21.3,29.47,NNW,341,4.9,5.8,40,0.00,,CLR,0.00,VWS V14.01,2013-11-18 23:21:00,
2013-11-18 17:23:00,43.9,21.1,29.47,NNW,341,5.4,5.4,40,0.00,,CLR,0.00,VWS V14.01,2013-11-18 23:23:00,
2013-11-18 17:24:00,43.9,21.1,29.47,NNW,336,5.8,5.8,40,0.00,,CLR,0.00,VWS V14.01,2013-11-18 23:24:00,
2013-11-18 17:25:00,43.9,21.1,29.47,North,353,5.4,5.8,40,0.00,,CLR,0.00,VWS V14.01,2013-11-18 23:25:00,
2013-11-18 17:26:00,43.9,21.1,29.47,NNW,346,4.9,5.4,40,0.00,,CLR,0.00,VWS V14.01,2013-11-18 23:26:00,
2013-11-18 17:28:00,43.9,21.1,29.47,North,353,4.0,4.9,40,0.00,,CLR,0.00,VWS V14.01,2013-11-18 23:28:00,
2013-11-18 17:29:00,43.9,21.1,29.47,NNW,336,3.6,5.4,40,0.00,,CLR,0.00,VWS V14.01,2013-11-18 23:29:00,
2013-11-18 17:30:00,43.9,21.1,29.47,North,357,4.0,4.0,40,0.00,,CLR,0.00,VWS V14.01,2013-11-18 23:30:00,
2013-11-18 17:31:00,43.7,21.0,29.47,North,0,4.9,5.4,40,0.00,,CLR,0.00,VWS V14.01,2013-11-18 23:31:00,
2013-11-18 17:32:00,43.7,21.0,29.47,North,2,4.9,4.9,40,0.00,,CLR,0.00,VWS V14.01,2013-11-18 23:32:00,
2013-11-18 17:33:00,43.7,21.0,29.47,North,6,5.4,5.4,40,0.00,,CLR,0.00,VWS V14.01,2013-11-18 23:33:00,
2013-11-18 17:34:00,43.9,21.1,29.47,North,6,4.5,4.5,40,0.00,,CLR,0.00,VWS V14.01,2013-11-18 23:34:00,
2013-11-18 17:35:00,43.9,21.1,29.47,North,6,4.0,4.9,40,0.00,,CLR,0.00,VWS V14.01,2013-11-18 23:35:00,
2013-11-18 17:37:00,44.1,21.3,29.47,North,9,4.9,4.9,40,0.00,,CLR,0.00,VWS V14.01,2013-11-18 23:37:00,
2013-11-18 17:38:00,44.1,21.3,29.47,North,10,5.4,5.4,40,0.00,,CLR,0.00,VWS V14.01,2013-11-18 23:38:00,
2013-11-18 17:39:00,44.2,21.5,29.50,North,9,4.9,4.9,40,0.00,,CLR,0.00,VWS V14.01,2013-11-18 23:39:00,
2013-11-18 17:40:00,44.2,21.5,29.50,North,9,4.5,5.4,40,0.00,,CLR,0.00,VWS V14.01,2013-11-18 23:40:00,
2013-11-18 17:41:00,44.1,21.3,29.50,North,6,5.4,5.4,40,0.00,,CLR,0.00,VWS V14.01,2013-11-18 23:41:00,
2013-11-18 17:43:00,44.1,21.3,29.50,North,353,5.4,5.4,40,0.00,,CLR,0.00,VWS V14.01,2013-11-18 23:43:00,
2013-11-18 17:44:00,43.9,21.1,29.50,North,353,4.0,4.0,40,0.00,,CLR,0.00,VWS V14.01,2013-11-18 23:44:00,
2013-11-18 17:45:00,43.9,21.1,29.50,North,353,4.0,4.0,40,0.00,,CLR,0.00,VWS V14.01,2013-11-18 23:45:00,
2013-11-18 17:47:00,43.5,20.8,29.50,North,353,4.9,5.4,40,0.00,,CLR,0.00,VWS V14.01,2013-11-18 23:47:00,
2013-11-18 17:48:00,43.5,20.8,29.50,North,353,4.9,4.9,40,0.00,,CLR,0.00,VWS V14.01,2013-11-18 23:48:00,
2013-11-18 17:49:00,43.3,20.6,29.50,North,353,4.9,4.9,40,0.00,,CLR,0.00,VWS V14.01,2013-11-18 23:49:00,
2013-11-18 17:50:00,43.3,20.6,29.50,North,353,4.0,4.9,40,0.00,,CLR,0.00,VWS V14.01,2013-11-18 23:50:00,
2013-11-18 17:52:00,43.2,20.5,29.50,North,353,3.6,5.4,40,0.00,,CLR,0.00,VWS V14.01,2013-11-18 23:52:00,
2013-11-18 17:53:00,43.2,20.5,29.50,North,353,4.0,4.0,40,0.00,,CLR,0.00,VWS V14.01,2013-11-18 23:53:00,
2013-11-18 17:55:00,43.2,20.5,29.50,North,353,4.0,4.0,40,0.00,,CLR,0.00,VWS V14.01,2013-11-18 23:55:00,
2013-11-18 17:57:00,43.2,20.5,29.50,North,353,4.0,4.0,40,0.00,,CLR,0.00,VWS V14.01,2013-11-18 23:57:00,
2013-11-18 17:58:00,43.3,20.6,29.50,North,0,3.6,4.0,40,0.00,,CLR,0.00,VWS V14.01,2013-11-18 23:58:00,
2013-11-18 18:00:00,43.3,20.6,29.50,North,0,0.0,0.0,40,0.00,,CLR,0.00,VWS V14.01,2013-11-19 00:00:00,
2013-11-18 18:01:00,43.3,20.6,29.50,North,0,0.0,0.0,40,0.00,,CLR,0.00,VWS V14.01,2013-11-19 00:01:00,
2013-11-18 18:04:00,42.8,20.2,29.50,North,0,0.0,0.0,40,0.00,,CLR,0.00,VWS V14.01,2013-11-19 00:04:00,
2013-11-18 18:06:00,42.4,21.0,29.50,North,0,0.0,0.0,42,0.00,,CLR,0.00,VWS V14.01,2013-11-19 00:06:00,
2013-11-18 18:07:00,42.1,20.7,29.50,North,0,0.0,0.0,42,0.00,,CLR,0.00,VWS V14.01,2013-11-19 00:07:00,
2013-11-18 18:09:00,41.7,20.3,29.50,North,0,0.0,0.0,42,0.00,,CLR,0.00,VWS V14.01,2013-11-19 00:09:00,
2013-11-18 18:10:00,41.4,20.0,29.50,North,0,0.0,0.0,42,0.00,,CLR,0.00,VWS V14.01,2013-11-19 00:10:00,
2013-11-18 18:14:00,40.8,19.5,29.50,North,0,0.0,0.0,42,0.00,,CLR,0.00,VWS V14.01,2013-11-19 00:14:00,
2013-11-18 18:15:00,40.6,19.4,29.50,North,7,0.0,0.0,42,0.00,,CLR,0.00,VWS V14.01,2013-11-19 00:15:00,
2013-11-18 18:16:00,40.6,19.4,29.50,North,7,0.0,0.0,42,0.00,,CLR,0.00,VWS V14.01,2013-11-19 00:16:00,
2013-11-18 18:17:00,40.6,19.4,29.50,North,7,0.0,0.0,42,0.00,,CLR,0.00,VWS V14.01,2013-11-19 00:17:00,
2013-11-18 18:19:00,40.5,19.2,29.50,NNE,17,0.0,0.0,42,0.00,,CLR,0.00,VWS V14.01,2013-11-19 00:19:00,
2013-11-18 18:20:00,40.5,19.2,29.50,NNE,30,3.6,3.6,42,0.00,,CLR,0.00,VWS V14.01,2013-11-19 00:20:00,
2013-11-18 18:21:00,40.5,19.2,29.50,NNE,26,3.6,4.0,42,0.00,,CLR,0.00,VWS V14.01,2013-11-19 00:21:00,
2013-11-18 18:23:00,40.5,19.2,29.50,NNE,29,4.0,4.0,42,0.00,,CLR,0.00,VWS V14.01,2013-11-19 00:23:00,
2013-11-18 18:24:00,40.5,19.2,29.47,NNE,28,3.6,3.6,42,0.00,,CLR,0.00,VWS V14.01,2013-11-19 00:24:00,
2013-11-18 18:25:00,40.3,19.0,29.47,NNE,29,4.0,4.0,42,0.00,,CLR,0.00,VWS V14.01,2013-11-19 00:25:00,
2013-11-18 18:26:00,40.3,19.0,29.47,NNE,28,3.6,3.6,42,0.00,,CLR,0.00,VWS V14.01,2013-11-19 00:26:00,
2013-11-18 18:27:00,40.3,19.0,29.47,NNE,28,4.0,4.0,42,0.00,,CLR,0.00,VWS V14.01,2013-11-19 00:27:00,
2013-11-18 18:28:00,40.3,19.0,29.47,NNE,28,3.1,4.0,42,0.00,,CLR,0.00,VWS V14.01,2013-11-19 00:28:00,
2013-11-18 18:30:00,40.3,19.0,29.47,NNE,25,4.0,4.0,42,0.00,,CLR,0.00,VWS V14.01,2013-11-19 00:30:00,
2013-11-18 18:31:00,40.3,19.0,29.47,NNE,21,3.6,4.0,42,0.00,,CLR,0.00,VWS V14.01,2013-11-19 00:31:00,
2013-11-18 18:32:00,40.3,19.0,29.47,NNE,21,2.7,4.0,42,0.00,,CLR,0.00,VWS V14.01,2013-11-19 00:32:00,
2013-11-18 18:33:00,40.3,19.0,29.47,NNE,20,4.0,4.0,42,0.00,,CLR,0.00,VWS V14.01,2013-11-19 00:33:00,
2013-11-18 18:34:00,40.5,19.2,29.47,NNE,20,4.0,4.0,42,0.00,,CLR,0.00,VWS V14.01,2013-11-19 00:34:00,
2013-11-18 18:35:00,40.5,19.2,29.47,NNE,20,3.6,4.0,42,0.00,,CLR,0.00,VWS V14.01,2013-11-19 00:35:00,
2013-11-18 18:37:00,40.5,19.2,29.47,NNE,20,2.7,3.6,42,0.00,,CLR,0.00,VWS V14.01,2013-11-19 00:37:00,
2013-11-18 18:39:00,40.5,19.2,29.47,NNE,20,3.6,3.6,42,0.00,,CLR,0.00,VWS V14.01,2013-11-19 00:39:00,
2013-11-18 18:40:00,40.5,19.2,29.47,NNE,20,3.1,3.6,42,0.00,,CLR,0.00,VWS V14.01,2013-11-19 00:40:00,
2013-11-18 18:42:00,40.6,19.4,29.47,NNE,20,0.0,3.1,42,0.00,,CLR,0.00,VWS V14.01,2013-11-19 00:42:00,
2013-11-18 18:44:00,40.5,19.2,29.47,NNE,20,0.0,0.0,42,0.00,,CLR,0.00,VWS V14.01,2013-11-19 00:44:00,
2013-11-18 18:45:00,40.5,19.2,29.47,NNE,20,0.0,0.0,42,0.00,,CLR,0.00,VWS V14.01,2013-11-19 00:45:00,
2013-11-18 18:46:00,40.5,19.2,29.47,NNE,20,0.0,0.0,42,0.00,,CLR,0.00,VWS V14.01,2013-11-19 00:46:00,
2013-11-18 18:49:00,39.9,18.7,29.47,NNE,20,0.0,0.0,42,0.00,,CLR,0.00,VWS V14.01,2013-11-19 00:49:00,
2013-11-18 18:50:00,39.7,18.5,29.47,NNE,20,0.0,0.0,42,0.00,,CLR,0.00,VWS V14.01,2013-11-19 00:50:00,
2013-11-18 18:51:00,39.6,18.4,29.47,NNE,20,0.0,0.0,42,0.00,,CLR,0.00,VWS V14.01,2013-11-19 00:51:00,
2013-11-18 18:55:00,39.0,17.9,29.50,NNE,20,0.0,0.0,42,0.00,,CLR,0.00,VWS V14.01,2013-11-19 00:55:00,
2013-11-18 18:56:00,38.8,17.7,29.50,NNE,20,0.0,0.0,42,0.00,,CLR,0.00,VWS V14.01,2013-11-19 00:56:00,
2013-11-18 18:57:00,38.7,17.6,29.50,NNE,20,0.0,0.0,42,0.00,,CLR,0.00,VWS V14.01,2013-11-19 00:57:00,
2013-11-18 18:59:00,38.5,17.4,29.50,NNE,20,0.0,0.0,42,0.00,,CLR,0.00,VWS V14.01,2013-11-19 00:59:00,
2013-11-18 19:00:00,38.5,17.4,29.50,NNE,20,0.0,0.0,42,0.00,,CLR,0.00,VWS V14.01,2013-11-19 01:00:00,
2013-11-18 19:02:00,38.1,17.1,29.50,NNE,20,0.0,0.0,42,0.00,,CLR,0.00,VWS V14.01,2013-11-19 01:02:00,
2013-11-18 19:03:00,38.1,17.1,29.50,NNE,20,0.0,0.0,42,0.00,,CLR,0.00,VWS V14.01,2013-11-19 01:03:00,
2013-11-18 19:04:00,37.9,16.9,29.50,NNE,20,0.0,0.0,42,0.00,,CLR,0.00,VWS V14.01,2013-11-19 01:04:00,
2013-11-18 19:06:00,37.8,16.8,29.50,NNE,20,0.0,0.0,42,0.00,,CLR,0.00,VWS V14.01,2013-11-19 01:06:00,
2013-11-18 19:08:00,37.6,16.6,29.50,NNE,20,0.0,0.0,42,0.00,,CLR,0.00,VWS V14.01,2013-11-19 01:08:00,
2013-11-18 19:10:00,37.4,16.4,29.50,NNE,20,0.0,0.0,42,0.00,,CLR,0.00,VWS V14.01,2013-11-19 01:10:00,
2013-11-18 19:12:00,37.2,17.3,29.50,NNE,20,0.0,0.0,44,0.00,,CLR,0.00,VWS V14.01,2013-11-19 01:12:00,
2013-11-18 19:13:00,37.2,17.3,29.50,NNE,20,0.0,0.0,44,0.00,,CLR,0.00,VWS V14.01,2013-11-19 01:13:00,
2013-11-18 19:14:00,37.0,17.2,29.50,NNE,20,0.0,0.0,44,0.00,,CLR,0.00,VWS V14.01,2013-11-19 01:14:00,
2013-11-18 19:15:00,37.0,17.2,29.50,NNE,20,0.0,0.0,44,0.00,,CLR,0.00,VWS V14.01,2013-11-19 01:15:00,
2013-11-18 19:18:00,37.0,17.2,29.50,NNE,20,0.0,0.0,44,0.00,,CLR,0.00,VWS V14.01,2013-11-19 01:18:00,
2013-11-18 19:20:00,37.0,17.2,29.50,NNE,20,0.0,0.0,44,0.00,,CLR,0.00,VWS V14.01,2013-11-19 01:20:00,
2013-11-18 19:21:00,36.9,17.0,29.50,NNE,20,0.0,0.0,44,0.00,,CLR,0.00,VWS V14.01,2013-11-19 01:21:00,
2013-11-18 19:23:00,36.7,16.8,29.50,NNE,20,0.0,0.0,44,0.00,,CLR,0.00,VWS V14.01,2013-11-19 01:23:00,
2013-11-18 19:24:00,36.5,16.7,29.50,NNE,20,0.0,0.0,44,0.00,,CLR,0.00,VWS V14.01,2013-11-19 01:24:00,
2013-11-18 19:26:00,36.3,16.5,29.50,NNE,20,0.0,0.0,44,0.00,,CLR,0.00,VWS V14.01,2013-11-19 01:26:00,
2013-11-18 19:27:00,36.1,16.4,29.50,NNE,20,0.0,0.0,44,0.00,,CLR,0.00,VWS V14.01,2013-11-19 01:27:00,
2013-11-18 19:28:00,36.1,16.4,29.50,NNE,20,0.0,0.0,44,0.00,,CLR,0.00,VWS V14.01,2013-11-19 01:28:00,
2013-11-18 19:29:00,36.1,16.4,29.50,NNE,20,0.0,0.0,44,0.00,,CLR,0.00,VWS V14.01,2013-11-19 01:29:00,
2013-11-18 19:31:00,36.1,16.4,29.50,NNE,20,0.0,0.0,44,0.00,,CLR,0.00,VWS V14.01,2013-11-19 01:31:00,
2013-11-18 19:33:00,36.1,16.4,29.50,NNE,20,0.0,0.0,44,0.00,,CLR,0.00,VWS V14.01,2013-11-19 01:33:00,
2013-11-18 19:34:00,36.3,16.5,29.50,NNE,20,0.0,0.0,44,0.00,,CLR,0.00,VWS V14.01,2013-11-19 01:34:00,
2013-11-18 19:35:00,36.3,16.5,29.50,NNE,20,0.0,0.0,44,0.00,,CLR,0.00,VWS V14.01,2013-11-19 01:35:00,
2013-11-18 19:37:00,36.3,16.5,29.50,NNE,20,0.0,0.0,44,0.00,,CLR,0.00,VWS V14.01,2013-11-19 01:37:00,
2013-11-18 19:38:00,36.3,16.5,29.50,NNE,20,0.0,0.0,44,0.00,,CLR,0.00,VWS V14.01,2013-11-19 01:38:00,
2013-11-18 19:39:00,36.3,16.5,29.50,NNE,20,0.0,0.0,44,0.00,,CLR,0.00,VWS V14.01,2013-11-19 01:39:00,
2013-11-18 19:40:00,36.3,16.5,29.50,NNE,20,0.0,0.0,44,0.00,,CLR,0.00,VWS V14.01,2013-11-19 01:40:00,
2013-11-18 19:42:00,36.3,16.5,29.50,NNE,20,0.0,0.0,44,0.00,,CLR,0.00,VWS V14.01,2013-11-19 01:42:00,
2013-11-18 19:43:00,36.3,16.5,29.50,NNE,20,0.0,0.0,44,0.00,,CLR,0.00,VWS V14.01,2013-11-19 01:43:00,
2013-11-18 19:44:00,36.1,16.4,29.50,NNE,20,0.0,0.0,44,0.00,,CLR,0.00,VWS V14.01,2013-11-19 01:44:00,
2013-11-18 19:45:00,36.1,16.4,29.50,NNE,20,0.0,0.0,44,0.00,,CLR,0.00,VWS V14.01,2013-11-19 01:45:00,
2013-11-18 19:46:00,35.8,16.0,29.50,NNE,20,0.0,0.0,44,0.00,,CLR,0.00,VWS V14.01,2013-11-19 01:46:00,
2013-11-18 19:48:00,35.6,15.9,29.50,NNE,20,0.0,0.0,44,0.00,,CLR,0.00,VWS V14.01,2013-11-19 01:48:00,
2013-11-18 19:49:00,35.6,15.9,29.50,NNE,20,0.0,0.0,44,0.00,,CLR,0.00,VWS V14.01,2013-11-19 01:49:00,
2013-11-18 19:50:00,35.6,15.9,29.50,NNE,20,0.0,0.0,44,0.00,,CLR,0.00,VWS V14.01,2013-11-19 01:50:00,
2013-11-18 19:51:00,35.4,15.7,29.50,NNE,20,0.0,0.0,44,0.00,,CLR,0.00,VWS V14.01,2013-11-19 01:51:00,
2013-11-18 19:54:00,35.4,15.7,29.50,NNE,20,0.0,0.0,44,0.00,,CLR,0.00,VWS V14.01,2013-11-19 01:54:00,
2013-11-18 19:55:00,35.4,15.7,29.50,NNE,20,0.0,0.0,44,0.00,,CLR,0.00,VWS V14.01,2013-11-19 01:55:00,
2013-11-18 19:57:00,35.4,15.7,29.50,NNE,20,0.0,0.0,44,0.00,,CLR,0.00,VWS V14.01,2013-11-19 01:57:00,
2013-11-18 19:58:00,35.4,15.7,29.50,NNE,20,0.0,0.0,44,0.00,,CLR,0.00,VWS V14.01,2013-11-19 01:58:00,
2013-11-18 20:00:00,35.4,15.7,29.50,NNE,20,0.0,0.0,44,0.00,,CLR,0.00,VWS V14.01,2013-11-19 02:00:00,
2013-11-18 20:03:00,35.4,15.7,29.50,NNE,20,0.0,0.0,44,0.00,,CLR,0.00,VWS V14.01,2013-11-19 02:03:00,
2013-11-18 20:05:00,35.6,15.9,29.50,NNE,20,0.0,0.0,44,0.00,,CLR,0.00,VWS V14.01,2013-11-19 02:05:00,
2013-11-18 20:06:00,35.6,15.9,29.50,NNE,20,0.0,0.0,44,0.00,,CLR,0.00,VWS V14.01,2013-11-19 02:06:00,
2013-11-18 20:07:00,35.4,15.7,29.50,NNE,20,0.0,0.0,44,0.00,,CLR,0.00,VWS V14.01,2013-11-19 02:07:00,
2013-11-18 20:08:00,35.4,15.7,29.50,NNE,20,0.0,0.0,44,0.00,,CLR,0.00,VWS V14.01,2013-11-19 02:08:00,
2013-11-18 20:10:00,35.1,15.4,29.53,NNE,20,0.0,0.0,44,0.00,,CLR,0.00,VWS V14.01,2013-11-19 02:10:00,
2013-11-18 20:11:00,34.9,15.2,29.53,NNE,20,0.0,0.0,44,0.00,,CLR,0.00,VWS V14.01,2013-11-19 02:11:00,
2013-11-18 20:12:00,34.9,15.2,29.53,NNE,20,0.0,0.0,44,0.00,,CLR,0.00,VWS V14.01,2013-11-19 02:12:00,
2013-11-18 20:14:00,34.3,14.7,29.53,NNE,20,0.0,0.0,44,0.00,,CLR,0.00,VWS V14.01,2013-11-19 02:14:00,
2013-11-18 20:16:00,34.3,14.7,29.53,NNE,20,0.0,0.0,44,0.00,,CLR,0.00,VWS V14.01,2013-11-19 02:16:00,
2013-11-18 20:17:00,34.2,14.5,29.53,NNE,20,0.0,0.0,44,0.00,,CLR,0.00,VWS V14.01,2013-11-19 02:17:00,
2013-11-18 20:19:00,34.3,14.7,29.53,NNE,20,0.0,0.0,44,0.00,,CLR,0.00,VWS V14.01,2013-11-19 02:19:00,
2013-11-18 20:21:00,34.3,14.7,29.53,NNE,20,0.0,0.0,44,0.00,,CLR,0.00,VWS V14.01,2013-11-19 02:21:00,
2013-11-18 20:22:00,34.3,14.7,29.53,NNE,20,0.0,0.0,44,0.00,,CLR,0.00,VWS V14.01,2013-11-19 02:22:00,
2013-11-18 20:23:00,34.5,14.9,29.53,NNE,20,0.0,0.0,44,0.00,,CLR,0.00,VWS V14.01,2013-11-19 02:23:00,
2013-11-18 20:24:00,34.5,14.9,29.53,NNE,20,0.0,0.0,44,0.00,,CLR,0.00,VWS V14.01,2013-11-19 02:24:00,
2013-11-18 20:27:00,34.7,15.0,29.53,NNE,20,0.0,0.0,44,0.00,,CLR,0.00,VWS V14.01,2013-11-19 02:27:00,
2013-11-18 20:28:00,34.7,15.0,29.53,NNE,20,0.0,0.0,44,0.00,,CLR,0.00,VWS V14.01,2013-11-19 02:28:00,
2013-11-18 20:29:00,34.9,15.2,29.53,NNE,20,0.0,0.0,44,0.00,,CLR,0.00,VWS V14.01,2013-11-19 02:29:00,
2013-11-18 20:30:00,34.9,15.2,29.53,NNE,20,0.0,0.0,44,0.00,,CLR,0.00,VWS V14.01,2013-11-19 02:30:00,
2013-11-18 20:32:00,35.1,15.4,29.53,NNE,20,0.0,0.0,44,0.00,,CLR,0.00,VWS V14.01,2013-11-19 02:32:00,
2013-11-18 20:33:00,35.2,15.5,29.53,NNE,20,0.0,0.0,44,0.00,,CLR,0.00,VWS V14.01,2013-11-19 02:33:00,
2013-11-18 20:34:00,35.2,15.5,29.53,NNE,20,0.0,0.0,44,0.00,,CLR,0.00,VWS V14.01,2013-11-19 02:34:00,
2013-11-18 20:35:00,35.2,15.5,29.53,NNE,20,0.0,0.0,44,0.00,,CLR,0.00,VWS V14.01,2013-11-19 02:35:00,
2013-11-18 20:36:00,35.1,15.4,29.53,NNE,20,3.1,3.6,44,0.00,,CLR,0.00,VWS V14.01,2013-11-19 02:36:00,
2013-11-18 20:37:00,34.9,15.2,29.53,NNE,20,2.7,3.6,44,0.00,,CLR,0.00,VWS V14.01,2013-11-19 02:37:00,
2013-11-18 20:38:00,34.9,15.2,29.53,NNE,20,2.7,2.7,44,0.00,,CLR,0.00,VWS V14.01,2013-11-19 02:38:00,
2013-11-18 20:40:00,34.5,14.9,29.53,NNE,20,2.2,2.2,44,0.00,,CLR,0.00,VWS V14.01,2013-11-19 02:40:00,
2013-11-18 20:41:00,34.5,14.9,29.53,NNE,20,3.1,3.6,44,0.00,,CLR,0.00,VWS V14.01,2013-11-19 02:41:00,
2013-11-18 20:42:00,34.5,14.9,29.53,NNE,20,2.7,3.6,44,0.00,,CLR,0.00,VWS V14.01,2013-11-19 02:42:00,
2013-11-18 20:43:00,34.5,14.9,29.53,NNE,20,2.7,3.1,44,0.00,,CLR,0.00,VWS V14.01,2013-11-19 02:43:00,
2013-11-18 20:44:00,34.5,14.9,29.53,NNE,20,2.7,2.7,44,0.00,,CLR,0.00,VWS V14.01,2013-11-19 02:44:00,
2013-11-18 20:45:00,34.5,14.9,29.53,NNE,20,0.0,2.2,44,0.00,,CLR,0.00,VWS V14.01,2013-11-19 02:45:00,
2013-11-18 20:47:00,34.5,14.9,29.53,NNE,20,0.0,0.0,44,0.00,,CLR,0.00,VWS V14.01,2013-11-19 02:47:00,
2013-11-18 20:49:00,34.5,14.9,29.53,NNE,20,0.0,0.0,44,0.00,,CLR,0.00,VWS V14.01,2013-11-19 02:49:00,
2013-11-18 20:51:00,34.7,15.0,29.53,NNE,20,0.0,0.0,44,0.00,,CLR,0.00,VWS V14.01,2013-11-19 02:51:00,
2013-11-18 20:53:00,34.7,15.0,29.53,NNE,20,0.0,0.0,44,0.00,,CLR,0.00,VWS V14.01,2013-11-19 02:53:00,
2013-11-18 20:54:00,34.7,15.0,29.53,NNE,20,0.0,0.0,44,0.00,,CLR,0.00,VWS V14.01,2013-11-19 02:54:00,
2013-11-18 20:55:00,34.7,15.0,29.53,NNE,20,0.0,0.0,44,0.00,,CLR,0.00,VWS V14.01,2013-11-19 02:55:00,
2013-11-18 20:56:00,34.9,15.2,29.53,NNE,20,0.0,0.0,44,0.00,,CLR,0.00,VWS V14.01,2013-11-19 02:56:00,
2013-11-18 20:59:00,34.9,15.2,29.53,NNE,20,0.0,0.0,44,0.00,,CLR,0.00,VWS V14.01,2013-11-19 02:59:00,
2013-11-18 21:00:00,34.9,15.2,29.53,NNE,20,0.0,0.0,44,0.00,,CLR,0.00,VWS V14.01,2013-11-19 03:00:00,
2013-11-18 21:01:00,34.9,15.2,29.53,NNE,20,0.0,0.0,44,0.00,,CLR,0.00,VWS V14.01,2013-11-19 03:01:00,
2013-11-18 21:04:00,34.5,14.9,29.53,NNE,20,0.0,0.0,44,0.00,,CLR,0.00,VWS V14.01,2013-11-19 03:04:00,
2013-11-18 21:05:00,34.3,14.7,29.53,NNE,20,0.0,0.0,44,0.00,,CLR,0.00,VWS V14.01,2013-11-19 03:05:00,
2013-11-18 21:06:00,34.3,14.7,29.53,NNE,20,0.0,0.0,44,0.00,,CLR,0.00,VWS V14.01,2013-11-19 03:06:00,
2013-11-18 21:07:00,34.2,14.5,29.53,NNE,20,0.0,0.0,44,0.00,,CLR,0.00,VWS V14.01,2013-11-19 03:07:00,
2013-11-18 21:09:00,34.3,14.7,29.53,NNE,20,0.0,0.0,44,0.00,,CLR,0.00,VWS V14.01,2013-11-19 03:09:00,
2013-11-18 21:10:00,34.3,14.7,29.53,NNE,20,0.0,0.0,44,0.00,,CLR,0.00,VWS V14.01,2013-11-19 03:10:00,
2013-11-18 21:11:00,34.5,14.9,29.53,NNE,20,0.0,0.0,44,0.00,,CLR,0.00,VWS V14.01,2013-11-19 03:11:00,
2013-11-18 21:12:00,34.5,14.9,29.53,NNE,20,0.0,0.0,44,0.00,,CLR,0.00,VWS V14.01,2013-11-19 03:12:00,
2013-11-18 21:13:00,34.9,15.2,29.53,NNE,20,0.0,0.0,44,0.00,,CLR,0.00,VWS V14.01,2013-11-19 03:13:00,
2013-11-18 21:15:00,35.1,15.4,29.53,NNE,20,0.0,0.0,44,0.00,,CLR,0.00,VWS V14.01,2013-11-19 03:15:00,
2013-11-18 21:16:00,35.2,15.5,29.53,NNE,20,0.0,0.0,44,0.00,,CLR,0.00,VWS V14.01,2013-11-19 03:16:00,
2013-11-18 21:17:00,35.4,15.7,29.53,NNE,20,0.0,0.0,44,0.00,,CLR,0.00,VWS V14.01,2013-11-19 03:17:00,
2013-11-18 21:18:00,35.4,15.7,29.53,NNE,20,0.0,0.0,44,0.00,,CLR,0.00,VWS V14.01,2013-11-19 03:18:00,
2013-11-18 21:20:00,35.4,15.7,29.53,NNE,20,0.0,0.0,44,0.00,,CLR,0.00,VWS V14.01,2013-11-19 03:20:00,
2013-11-18 21:21:00,35.2,15.5,29.53,NNE,20,0.0,0.0,44,0.00,,CLR,0.00,VWS V14.01,2013-11-19 03:21:00,
2013-11-18 21:22:00,34.9,15.2,29.53,NNE,20,0.0,0.0,44,0.00,,CLR,0.00,VWS V14.01,2013-11-19 03:22:00,
2013-11-18 21:23:00,34.9,15.2,29.53,NNE,20,0.0,0.0,44,0.00,,CLR,0.00,VWS V14.01,2013-11-19 03:23:00,
2013-11-18 21:26:00,34.5,14.9,29.53,NNE,20,0.0,0.0,44,0.00,,CLR,0.00,VWS V14.01,2013-11-19 03:26:00,
2013-11-18 21:27:00,34.3,14.7,29.53,NNE,20,0.0,0.0,44,0.00,,CLR,0.00,VWS V14.01,2013-11-19 03:27:00,
2013-11-18 21:28:00,34.3,14.7,29.53,NNE,20,0.0,0.0,44,0.00,,CLR,0.00,VWS V14.01,2013-11-19 03:28:00,
2013-11-18 21:29:00,34.3,14.7,29.53,NNE,20,0.0,0.0,44,0.00,,CLR,0.00,VWS V14.01,2013-11-19 03:29:00,
2013-11-18 21:30:00,34.3,14.7,29.53,NNE,20,0.0,0.0,44,0.00,,CLR,0.00,VWS V14.01,2013-11-19 03:30:00,
2013-11-18 21:31:00,34.3,14.7,29.53,NNE,20,0.0,0.0,44,0.00,,CLR,0.00,VWS V14.01,2013-11-19 03:31:00,
2013-11-18 21:33:00,34.3,14.7,29.53,NNE,20,0.0,0.0,44,0.00,,CLR,0.00,VWS V14.01,2013-11-19 03:33:00,
2013-11-18 21:34:00,34.3,14.7,29.53,NNE,20,0.0,0.0,44,0.00,,CLR,0.00,VWS V14.01,2013-11-19 03:34:00,
2013-11-18 21:36:00,34.2,14.5,29.53,NNE,20,0.0,0.0,44,0.00,,CLR,0.00,VWS V14.01,2013-11-19 03:36:00,
2013-11-18 21:37:00,34.2,14.5,29.53,NNE,20,0.0,0.0,44,0.00,,CLR,0.00,VWS V14.01,2013-11-19 03:37:00,
2013-11-18 21:38:00,34.2,14.5,29.53,NNE,20,0.0,0.0,44,0.00,,CLR,0.00,VWS V14.01,2013-11-19 03:38:00,
2013-11-18 21:39:00,34.0,14.4,29.53,NNE,20,0.0,0.0,44,0.00,,CLR,0.00,VWS V14.01,2013-11-19 03:39:00,
2013-11-18 21:41:00,33.6,15.1,29.53,NNE,20,0.0,0.0,46,0.00,,CLR,0.00,VWS V14.01,2013-11-19 03:41:00,
2013-11-18 21:42:00,33.6,15.1,29.53,NNE,20,0.0,0.0,46,0.00,,CLR,0.00,VWS V14.01,2013-11-19 03:42:00,
2013-11-18 21:43:00,33.4,14.9,29.53,NNE,20,0.0,0.0,46,0.00,,CLR,0.00,VWS V14.01,2013-11-19 03:43:00,
2013-11-18 21:44:00,33.3,14.7,29.53,NNE,20,0.0,0.0,46,0.00,,CLR,0.00,VWS V14.01,2013-11-19 03:44:00,
2013-11-18 21:45:00,33.1,14.6,29.53,NNE,20,0.0,0.0,46,0.00,,CLR,0.00,VWS V14.01,2013-11-19 03:45:00,
2013-11-18 21:46:00,33.1,14.6,29.53,NNE,20,0.0,0.0,46,0.00,,CLR,0.00,VWS V14.01,2013-11-19 03:46:00,
2013-11-18 21:47:00,32.9,14.4,29.53,NNE,20,0.0,0.0,46,0.00,,CLR,0.00,VWS V14.01,2013-11-19 03:47:00,
2013-11-18 21:48:00,32.9,14.4,29.53,NNE,20,0.0,0.0,46,0.00,,CLR,0.00,VWS V14.01,2013-11-19 03:48:00,
2013-11-18 21:49:00,32.7,14.2,29.53,NNE,20,0.0,0.0,46,0.00,,CLR,0.00,VWS V14.01,2013-11-19 03:49:00,
2013-11-18 21:53:00,32.4,13.9,29.53,NNE,20,0.0,0.0,46,0.00,,CLR,0.00,VWS V14.01,2013-11-19 03:53:00,
2013-11-18 21:55:00,32.2,13.7,29.53,NNE,20,0.0,0.0,46,0.00,,CLR,0.00,VWS V14.01,2013-11-19 03:55:00,
2013-11-18 21:58:00,31.6,13.2,29.53,NNE,20,0.0,0.0,46,0.00,,CLR,0.00,VWS V14.01,2013-11-19 03:58:00,
2013-11-18 21:59:00,31.6,13.2,29.53,NNE,20,0.0,0.0,46,0.00,,CLR,0.00,VWS V14.01,2013-11-19 03:59:00,
2013-11-18 22:01:00,31.5,13.1,29.53,NNE,20,0.0,0.0,46,0.00,,CLR,0.00,VWS V14.01,2013-11-19 04:01:00,
2013-11-18 22:04:00,31.5,13.1,29.53,NNE,20,0.0,0.0,46,0.00,,CLR,0.00,VWS V14.01,2013-11-19 04:04:00,
2013-11-18 22:05:00,31.6,13.2,29.53,NNE,20,0.0,0.0,46,0.00,,CLR,0.00,VWS V14.01,2013-11-19 04:05:00,
2013-11-18 22:07:00,31.6,13.2,29.53,NNE,20,0.0,0.0,46,0.00,,CLR,0.00,VWS V14.01,2013-11-19 04:07:00,
2013-11-18 22:09:00,32.0,13.6,29.53,NNE,20,0.0,0.0,46,0.00,,CLR,0.00,VWS V14.01,2013-11-19 04:09:00,
2013-11-18 22:10:00,32.2,13.7,29.53,NNE,20,0.0,0.0,46,0.00,,CLR,0.00,VWS V14.01,2013-11-19 04:10:00,
2013-11-18 22:12:00,32.2,15.6,29.53,NNE,20,0.0,0.0,50,0.00,,CLR,0.00,VWS V14.01,2013-11-19 04:12:00,
2013-11-18 22:13:00,32.4,15.8,29.53,NNE,20,0.0,0.0,50,0.00,,CLR,0.00,VWS V14.01,2013-11-19 04:13:00,
2013-11-18 22:15:00,32.5,16.0,29.53,NNE,20,0.0,0.0,50,0.00,,CLR,0.00,VWS V14.01,2013-11-19 04:15:00,
2013-11-18 22:16:00,32.5,16.0,29.53,NNE,20,0.0,0.0,50,0.00,,CLR,0.00,VWS V14.01,2013-11-19 04:16:00,
2013-11-18 22:17:00,32.5,16.0,29.53,NNE,20,0.0,0.0,50,0.00,,CLR,0.00,VWS V14.01,2013-11-19 04:17:00,
2013-11-18 22:18:00,32.5,16.0,29.53,NNE,20,0.0,0.0,50,0.00,,CLR,0.00,VWS V14.01,2013-11-19 04:18:00,
2013-11-18 22:19:00,32.5,16.0,29.53,NNE,20,0.0,0.0,50,0.00,,CLR,0.00,VWS V14.01,2013-11-19 04:19:00,
2013-11-18 22:21:00,32.4,15.8,29.53,NNE,20,0.0,0.0,50,0.00,,CLR,0.00,VWS V14.01,2013-11-19 04:21:00,
2013-11-18 22:22:00,32.4,15.8,29.53,NNE,20,0.0,0.0,50,0.00,,CLR,0.00,VWS V14.01,2013-11-19 04:22:00,
2013-11-18 22:23:00,32.5,16.0,29.53,NNE,20,0.0,0.0,50,0.00,,CLR,0.00,VWS V14.01,2013-11-19 04:23:00,
2013-11-18 22:24:00,32.5,16.0,29.53,NNE,20,0.0,0.0,50,0.00,,CLR,0.00,VWS V14.01,2013-11-19 04:24:00,
2013-11-18 22:26:00,32.5,16.0,29.53,NNE,20,0.0,0.0,50,0.00,,CLR,0.00,VWS V14.01,2013-11-19 04:26:00,
2013-11-18 22:27:00,32.7,16.1,29.53,NNE,20,0.0,0.0,50,0.00,,CLR,0.00,VWS V14.01,2013-11-19 04:27:00,
2013-11-18 22:29:00,33.1,16.5,29.53,NNE,20,0.0,0.0,50,0.00,,CLR,0.00,VWS V14.01,2013-11-19 04:29:00,
2013-11-18 22:30:00,33.1,16.5,29.53,NNE,20,0.0,0.0,50,0.00,,CLR,0.00,VWS V14.01,2013-11-19 04:30:00,
2013-11-18 22:32:00,32.9,16.3,29.53,NNE,20,0.0,0.0,50,0.00,,CLR,0.00,VWS V14.01,2013-11-19 04:32:00,
2013-11-18 22:33:00,32.9,16.3,29.53,NNE,20,0.0,0.0,50,0.00,,CLR,0.00,VWS V14.01,2013-11-19 04:33:00,
2013-11-18 22:34:00,32.9,16.3,29.53,NNE,20,0.0,0.0,50,0.00,,CLR,0.00,VWS V14.01,2013-11-19 04:34:00,
2013-11-18 22:36:00,32.7,16.1,29.53,NNE,20,0.0,0.0,50,0.00,,CLR,0.00,VWS V14.01,2013-11-19 04:36:00,
2013-11-18 22:38:00,32.5,16.0,29.53,NNE,20,0.0,0.0,50,0.00,,CLR,0.00,VWS V14.01,2013-11-19 04:38:00,
2013-11-18 22:39:00,32.4,15.8,29.53,NNE,20,0.0,0.0,50,0.00,,CLR,0.00,VWS V14.01,2013-11-19 04:39:00,
2013-11-18 22:40:00,32.4,15.8,29.53,NNE,20,0.0,0.0,50,0.00,,CLR,0.00,VWS V14.01,2013-11-19 04:40:00,
2013-11-18 22:41:00,32.4,15.8,29.53,NNE,20,0.0,0.0,50,0.00,,CLR,0.00,VWS V14.01,2013-11-19 04:41:00,
2013-11-18 22:42:00,32.2,15.6,29.53,NNE,20,0.0,0.0,50,0.00,,CLR,0.00,VWS V14.01,2013-11-19 04:42:00,
2013-11-18 22:43:00,32.2,15.6,29.53,NNE,20,0.0,0.0,50,0.00,,CLR,0.00,VWS V14.01,2013-11-19 04:43:00,
2013-11-18 22:45:00,31.8,15.3,29.53,NNE,20,0.0,0.0,50,0.00,,CLR,0.00,VWS V14.01,2013-11-19 04:45:00,
2013-11-18 22:47:00,31.6,15.1,29.53,NNE,20,0.0,0.0,50,0.00,,CLR,0.00,VWS V14.01,2013-11-19 04:47:00,
2013-11-18 22:48:00,31.6,15.1,29.53,NNE,20,0.0,0.0,50,0.00,,CLR,0.00,VWS V14.01,2013-11-19 04:48:00,
2013-11-18 22:49:00,31.6,15.1,29.53,NNE,20,0.0,0.0,50,0.00,,CLR,0.00,VWS V14.01,2013-11-19 04:49:00,
2013-11-18 22:50:00,31.6,15.1,29.53,NNE,20,0.0,0.0,50,0.00,,CLR,0.00,VWS V14.01,2013-11-19 04:50:00,
2013-11-18 22:51:00,31.6,15.1,29.53,NNE,20,0.0,0.0,50,0.00,,CLR,0.00,VWS V14.01,2013-11-19 04:51:00,
2013-11-18 22:53:00,31.8,15.3,29.53,NNE,20,0.0,0.0,50,0.00,,CLR,0.00,VWS V14.01,2013-11-19 04:53:00,
2013-11-18 22:54:00,31.8,15.3,29.53,NNE,20,0.0,0.0,50,0.00,,CLR,0.00,VWS V14.01,2013-11-19 04:54:00,
2013-11-18 22:55:00,32.0,18.1,29.53,NNE,20,0.0,0.0,56,0.00,,CLR,0.00,VWS V14.01,2013-11-19 04:55:00,
2013-11-18 22:56:00,32.2,18.3,29.53,NNE,20,0.0,0.0,56,0.00,,CLR,0.00,VWS V14.01,2013-11-19 04:56:00,
2013-11-18 22:58:00,32.2,18.3,29.53,NNE,20,0.0,0.0,56,0.00,,CLR,0.00,VWS V14.01,2013-11-19 04:58:00,
2013-11-18 23:00:00,32.4,18.4,29.53,NNE,20,0.0,0.0,56,0.00,,CLR,0.00,VWS V14.01,2013-11-19 05:00:00,
2013-11-18 23:01:00,32.4,18.4,29.53,NNE,20,0.0,0.0,56,0.00,,CLR,0.00,VWS V14.01,2013-11-19 05:01:00,
2013-11-18 23:02:00,32.4,18.4,29.53,NNE,20,0.0,0.0,56,0.00,,CLR,0.00,VWS V14.01,2013-11-19 05:02:00,
2013-11-18 23:06:00,32.5,18.6,29.53,NNE,20,0.0,0.0,56,0.00,,CLR,0.00,VWS V14.01,2013-11-19 05:06:00,
2013-11-18 23:07:00,32.5,18.6,29.53,NNE,20,0.0,0.0,56,0.00,,CLR,0.00,VWS V14.01,2013-11-19 05:07:00,
2013-11-18 23:08:00,32.5,18.6,29.53,NNE,20,0.0,0.0,56,0.00,,CLR,0.00,VWS V14.01,2013-11-19 05:08:00,
2013-11-18 23:11:00,32.7,20.4,29.53,NNE,20,0.0,0.0,60,0.00,,CLR,0.00,VWS V14.01,2013-11-19 05:11:00,
2013-11-18 23:12:00,32.7,20.4,29.53,NNE,20,0.0,0.0,60,0.00,,CLR,0.00,VWS V14.01,2013-11-19 05:12:00,
2013-11-18 23:13:00,32.7,20.4,29.53,NNE,20,0.0,0.0,60,0.00,,CLR,0.00,VWS V14.01,2013-11-19 05:13:00,
2013-11-18 23:14:00,32.9,18.9,29.53,NNE,20,0.0,0.0,56,0.00,,CLR,0.00,VWS V14.01,2013-11-19 05:14:00,
2013-11-18 23:17:00,32.9,18.9,29.53,NNE,20,0.0,0.0,56,0.00,,CLR,0.00,VWS V14.01,2013-11-19 05:17:00,
2013-11-18 23:18:00,32.9,18.9,29.53,NNE,20,0.0,0.0,56,0.00,,CLR,0.00,VWS V14.01,2013-11-19 05:18:00,
2013-11-18 23:19:00,32.7,18.8,29.53,NNE,20,0.0,0.0,56,0.00,,CLR,0.00,VWS V14.01,2013-11-19 05:19:00,
2013-11-18 23:20:00,32.7,18.8,29.53,NNE,20,0.0,0.0,56,0.00,,CLR,0.00,VWS V14.01,2013-11-19 05:20:00,
2013-11-18 23:22:00,32.2,15.6,29.53,NNE,20,0.0,0.0,50,0.00,,CLR,0.00,VWS V14.01,2013-11-19 05:22:00,
2013-11-18 23:23:00,32.2,15.6,29.53,NNE,20,0.0,0.0,50,0.00,,CLR,0.00,VWS V14.01,2013-11-19 05:23:00,
2013-11-18 23:24:00,32.0,15.5,29.53,NNE,20,0.0,0.0,50,0.00,,CLR,0.00,VWS V14.01,2013-11-19 05:24:00,
2013-11-18 23:25:00,31.8,15.3,29.56,NNE,20,0.0,0.0,50,0.00,,CLR,0.00,VWS V14.01,2013-11-19 05:25:00,
2013-11-18 23:28:00,31.5,17.6,29.56,NNE,20,0.0,0.0,56,0.00,,CLR,0.00,VWS V14.01,2013-11-19 05:28:00,
2013-11-18 23:29:00,31.5,17.6,29.56,NNE,20,0.0,0.0,56,0.00,,CLR,0.00,VWS V14.01,2013-11-19 05:29:00,
2013-11-18 23:32:00,31.3,17.4,29.56,NNE,20,0.0,0.0,56,0.00,,CLR,0.00,VWS V14.01,2013-11-19 05:32:00,
2013-11-18 23:34:00,31.3,17.4,29.56,NNE,20,0.0,0.0,56,0.00,,CLR,0.00,VWS V14.01,2013-11-19 05:34:00,
2013-11-18 23:35:00,31.1,17.2,29.56,NNE,20,0.0,0.0,56,0.00,,CLR,0.00,VWS V14.01,2013-11-19 05:35:00,
2013-11-18 23:37:00,31.1,17.2,29.56,NNE,20,0.0,0.0,56,0.00,,CLR,0.00,VWS V14.01,2013-11-19 05:37:00,
2013-11-18 23:38:00,31.1,17.2,29.56,NNE,20,0.0,0.0,56,0.00,,CLR,0.00,VWS V14.01,2013-11-19 05:38:00,
2013-11-18 23:39:00,31.1,17.2,29.56,NNE,20,0.0,0.0,56,0.00,,CLR,0.00,VWS V14.01,2013-11-19 05:39:00,
2013-11-18 23:40:00,31.3,17.4,29.56,NNE,20,0.0,0.0,56,0.00,,CLR,0.00,VWS V14.01,2013-11-19 05:40:00,
2013-11-18 23:41:00,31.3,17.4,29.56,NNE,20,0.0,0.0,56,0.00,,CLR,0.00,VWS V14.01,2013-11-19 05:41:00,
2013-11-18 23:43:00,31.5,19.2,29.56,NNE,20,0.0,0.0,60,0.00,,CLR,0.00,VWS V14.01,2013-11-19 05:43:00,
2013-11-18 23:44:00,31.6,19.4,29.56,NNE,20,0.0,0.0,60,0.00,,CLR,0.00,VWS V14.01,2013-11-19 05:44:00,
2013-11-18 23:45:00,31.6,19.4,29.56,NNE,20,0.0,0.0,60,0.00,,CLR,0.00,VWS V14.01,2013-11-19 05:45:00,
2013-11-18 23:46:00,31.6,19.4,29.56,NNE,20,0.0,0.0,60,0.00,,CLR,0.00,VWS V14.01,2013-11-19 05:46:00,
2013-11-18 23:48:00,31.8,19.5,29.56,NNE,20,0.0,0.0,60,0.00,,CLR,0.00,VWS V14.01,2013-11-19 05:48:00,
2013-11-18 23:49:00,32.0,19.7,29.56,NNE,20,0.0,0.0,60,0.00,,CLR,0.00,VWS V14.01,2013-11-19 05:49:00,
2013-11-18 23:51:00,32.0,19.7,29.56,NNE,20,0.0,0.0,60,0.00,,CLR,0.00,VWS V14.01,2013-11-19 05:51:00,
2013-11-18 23:54:00,32.0,19.7,29.56,NNE,20,0.0,0.0,60,0.00,,CLR,0.00,VWS V14.01,2013-11-19 05:54:00,
2013-11-18 23:56:00,32.0,19.7,29.56,NNE,20,0.0,0.0,60,0.00,,CLR,0.00,VWS V14.01,2013-11-19 05:56:00,
2013-11-18 23:58:00,32.0,19.7,29.56,NNE,20,0.0,0.0,60,0.00,,CLR,0.00,VWS V14.01,2013-11-19 05:58:00,
2013-11-18 23:59:00,32.0,19.7,29.56,NNE,20,0.0,0.0,60,0.00,,CLR,0.00,VWS V14.01,2013-11-19 05:59:00,